| time (UTC) | temp F | wind direction | speed MPH | gust MPH | rain 1hr in | rain 24hr in | rain mn in | humidity % | barometer mb |
| 20260507101401 | 50 | 26 | 2.0 | 5.0 | 0.00 | 0.41 | 0.00 | 67 | 1010.4 |
| 20260507101302 | 50 | 26 | 1.0 | 5.0 | 0.00 | 0.41 | 0.00 | 66 | 1010.4 |
| 20260507101202 | 49 | 26 | 0.0 | 5.0 | 0.00 | 0.41 | 0.00 | 65 | 1010.3 |
| 20260507101100 | 49 | 26 | 2.0 | 5.0 | 0.00 | 0.41 | 0.00 | 66 | 1010.3 |
| 20260507100903 | 49 | 26 | 1.0 | 5.0 | 0.00 | 0.41 | 0.00 | 66 | 1010.3 |
| 20260507100801 | 49 | 26 | 2.0 | 5.0 | 0.00 | 0.41 | 0.00 | 65 | 1010.3 |
| 20260507100702 | 49 | 27 | 5.0 | 5.0 | 0.00 | 0.41 | 0.00 | 65 | 1010.3 |
| 20260507100601 | 49 | 36 | 1.0 | 5.0 | 0.00 | 0.41 | 0.00 | 65 | 1010.3 |
| 20260507100301 | 49 | 36 | 1.0 | 5.0 | 0.00 | 0.41 | 0.00 | 66 | 1010.3 |
| 20260507100202 | 49 | 38 | 5.0 | 5.0 | 0.00 | 0.41 | 0.00 | 66 | 1010.3 |
| 20260507100005 | 50 | 24 | 0.0 | 6.0 | 0.00 | 0.41 | 0.00 | 67 | 1010.2 |
| 20260507095803 | 50 | 24 | 0.0 | 6.0 | 0.00 | 0.41 | 0.00 | 67 | 1010.2 |
| 20260507095702 | 50 | 24 | 0.0 | 6.0 | 0.00 | 0.41 | 0.00 | 67 | 1010.2 |
| 20260507095602 | 50 | 24 | 0.0 | 6.0 | 0.00 | 0.41 | 0.00 | 65 | 1010.2 |
| 20260507095505 | 50 | 24 | 0.0 | 6.0 | 0.00 | 0.41 | 0.00 | 65 | 1010.1 |
| 20260507095400 | 50 | 24 | 0.0 | 6.0 | 0.00 | 0.41 | 0.00 | 65 | 1010.1 |
| 20260507095259 | 50 | 24 | 0.0 | 6.0 | 0.00 | 0.41 | 0.00 | 66 | 1010.1 |
| 20260507095159 | 50 | 24 | 1.0 | 6.0 | 0.00 | 0.41 | 0.00 | 67 | 1010.1 |
| 20260507095059 | 50 | 32 | 1.0 | 3.0 | 0.00 | 0.41 | 0.00 | 67 | 1010.0 |
| 20260507094859 | 50 | 312 | 3.0 | 3.0 | 0.00 | 0.41 | 0.00 | 67 | 1010.1 |
| 20260507094800 | 50 | 312 | 0.0 | 3.0 | 0.00 | 0.41 | 0.00 | 65 | 1010.1 |
| 20260507094700 | 50 | 312 | 0.0 | 3.0 | 0.00 | 0.41 | 0.00 | 66 | 1010.1 |
| 20260507094601 | 50 | 312 | 2.0 | 3.0 | 0.00 | 0.41 | 0.00 | 66 | 1010.1 |
| 20260507094505 | 50 | 312 | 0.0 | 3.0 | 0.00 | 0.41 | 0.00 | 65 | 1010.1 |
| 20260507094359 | 50 | 312 | 2.0 | 5.0 | 0.00 | 0.41 | 0.00 | 65 | 1010.1 |
| 20260507094259 | 50 | 312 | 0.0 | 6.0 | 0.00 | 0.41 | 0.00 | 65 | 1010.1 |
| 20260507094159 | 50 | 312 | 1.0 | 6.0 | 0.00 | 0.41 | 0.00 | 65 | 1010.1 |
| 20260507094100 | 50 | 312 | 2.0 | 6.0 | 0.00 | 0.41 | 0.00 | 65 | 1010.1 |
| 20260507094005 | 50 | 312 | 0.0 | 6.0 | 0.00 | 0.41 | 0.00 | 65 | 1010.1 |
| 20260507093901 | 50 | 312 | 0.0 | 6.0 | 0.00 | 0.41 | 0.00 | 65 | 1010.1 |
| 20260507093800 | 50 | 312 | 1.0 | 6.0 | 0.00 | 0.41 | 0.00 | 65 | 1010.1 |
| 20260507093701 | 50 | 312 | 1.0 | 6.0 | 0.00 | 0.41 | 0.00 | 66 | 1010.0 |
| 20260507093600 | 50 | 312 | 2.0 | 6.0 | 0.00 | 0.41 | 0.00 | 65 | 1010.0 |
| 20260507093505 | 50 | 312 | 3.0 | 6.0 | 0.00 | 0.41 | 0.00 | 65 | 1010.1 |
| 20260507093300 | 50 | 22 | 4.0 | 4.0 | 0.00 | 0.41 | 0.00 | 66 | 1010.0 |
| 20260507093159 | 50 | 324 | 1.0 | 4.0 | 0.00 | 0.41 | 0.00 | 67 | 1009.9 |
| 20260507093102 | 50 | 323 | 1.0 | 4.0 | 0.00 | 0.41 | 0.00 | 66 | 1009.8 |
| 20260507093006 | 50 | 324 | 1.0 | 4.0 | 0.00 | 0.41 | 0.00 | 66 | 1009.8 |
| 20260507092859 | 50 | 323 | 1.0 | 4.0 | 0.00 | 0.41 | 0.00 | 66 | 1009.8 |
| 20260507092800 | 50 | 323 | 0.0 | 4.0 | 0.00 | 0.41 | 0.00 | 66 | 1009.8 |
| 20260507092659 | 50 | 323 | 1.0 | 4.0 | 0.00 | 0.41 | 0.00 | 65 | 1009.9 |
| 20260507092502 | 50 | 313 | 3.0 | 4.0 | 0.00 | 0.41 | 0.00 | 66 | 1009.9 |
| 20260507092400 | 50 | 313 | 2.0 | 5.0 | 0.00 | 0.41 | 0.00 | 66 | 1009.8 |
| 20260507092259 | 50 | 313 | 1.0 | 5.0 | 0.00 | 0.41 | 0.00 | 66 | 1009.8 |
| 20260507092005 | 50 | 313 | 2.0 | 5.0 | 0.00 | 0.41 | 0.00 | 65 | 1009.8 |
| 20260507091900 | 50 | 313 | 0.0 | 5.0 | 0.00 | 0.41 | 0.00 | 65 | 1009.8 |
| 20260507091800 | 50 | 313 | 1.0 | 5.0 | 0.00 | 0.41 | 0.00 | 64 | 1009.8 |
| 20260507091700 | 50 | 313 | 3.0 | 5.0 | 0.00 | 0.41 | 0.00 | 65 | 1009.7 |
| 20260507091600 | 50 | 319 | 4.0 | 5.0 | 0.00 | 0.41 | 0.00 | 65 | 1009.8 |
| 20260507091505 | 50 | 317 | 3.0 | 9.0 | 0.00 | 0.41 | 0.00 | 66 | 1009.7 |
| 20260507091400 | 50 | 309 | 1.0 | 9.0 | 0.00 | 0.41 | 0.00 | 65 | 1009.7 |
| 20260507091300 | 50 | 307 | 2.0 | 9.0 | 0.00 | 0.41 | 0.00 | 66 | 1009.7 |
| 20260507091200 | 50 | 307 | 3.0 | 9.0 | 0.00 | 0.41 | 0.00 | 65 | 1009.7 |
| 20260507091100 | 50 | 306 | 1.0 | 9.0 | 0.00 | 0.41 | 0.00 | 65 | 1009.8 |
| 20260507091004 | 50 | 304 | 1.0 | 9.0 | 0.00 | 0.41 | 0.00 | 65 | 1009.8 |
| 20260507090700 | 50 | 355 | 1.0 | 9.0 | 0.00 | 0.41 | 0.00 | 65 | 1009.8 |
| 20260507090505 | 50 | 259 | 3.0 | 4.0 | 0.00 | 0.41 | 0.00 | 66 | 1009.8 |
| 20260507090301 | 50 | 257 | 1.0 | 4.0 | 0.00 | 0.41 | 0.00 | 65 | 1009.8 |
| 20260507090201 | 50 | 257 | 0.0 | 4.0 | 0.00 | 0.41 | 0.00 | 66 | 1009.9 |
| 20260507090100 | 50 | 257 | 0.0 | 7.0 | 0.00 | 0.41 | 0.00 | 66 | 1009.9 |
| 20260507090006 | 50 | 257 | 0.0 | 7.0 | 0.00 | 0.41 | 0.00 | 66 | 1009.8 |
| 20260507085901 | 50 | 257 | 2.0 | 7.0 | 0.00 | 0.41 | 0.00 | 66 | 1009.7 |
| 20260507085800 | 50 | 254 | 1.0 | 7.0 | 0.00 | 0.41 | 0.00 | 66 | 1009.8 |
| 20260507085702 | 50 | 253 | 2.0 | 7.0 | 0.00 | 0.41 | 0.00 | 66 | 1009.7 |
| 20260507085600 | 50 | 253 | 1.0 | 7.0 | 0.00 | 0.41 | 0.00 | 65 | 1009.7 |
| 20260507085401 | 50 | 253 | 1.0 | 7.0 | 0.00 | 0.41 | 0.00 | 66 | 1009.7 |
| 20260507085301 | 50 | 253 | 2.0 | 7.0 | 0.00 | 0.41 | 0.00 | 65 | 1009.7 |
| 20260507085201 | 50 | 253 | 2.0 | 7.0 | 0.00 | 0.41 | 0.00 | 66 | 1009.7 |
| 20260507085007 | 50 | 43 | 1.0 | 7.0 | 0.00 | 0.41 | 0.00 | 66 | 1009.7 |
| 20260507084900 | 50 | 43 | 2.0 | 7.0 | 0.00 | 0.41 | 0.00 | 65 | 1009.7 |
| 20260507084800 | 50 | 40 | 2.0 | 7.0 | 0.00 | 0.41 | 0.00 | 65 | 1009.6 |
| 20260507084700 | 50 | 40 | 1.0 | 7.0 | 0.00 | 0.41 | 0.00 | 65 | 1009.6 |
| 20260507084601 | 50 | 40 | 4.0 | 8.0 | 0.00 | 0.41 | 0.00 | 66 | 1009.7 |
| 20260507084505 | 50 | 266 | 1.0 | 4.0 | 0.00 | 0.41 | 0.00 | 67 | 1009.6 |
| 20260507084400 | 50 | 259 | 0.0 | 4.0 | 0.00 | 0.41 | 0.00 | 67 | 1009.7 |
| 20260507084201 | 50 | 279 | 1.0 | 4.0 | 0.00 | 0.41 | 0.00 | 65 | 1009.7 |
| 20260507084101 | 51 | 276 | 0.0 | 5.0 | 0.00 | 0.41 | 0.00 | 65 | 1009.7 |
| 20260507084005 | 51 | 20 | 2.0 | 5.0 | 0.00 | 0.41 | 0.00 | 65 | 1009.7 |
| 20260507083900 | 51 | 23 | 2.0 | 5.0 | 0.00 | 0.41 | 0.00 | 66 | 1009.7 |
| 20260507083800 | 51 | 23 | 0.0 | 5.0 | 0.00 | 0.41 | 0.00 | 67 | 1009.7 |
| 20260507083701 | 51 | 23 | 1.0 | 5.0 | 0.00 | 0.41 | 0.00 | 66 | 1009.7 |
| 20260507083600 | 51 | 23 | 0.0 | 5.0 | 0.00 | 0.41 | 0.00 | 65 | 1009.7 |
| 20260507083504 | 51 | 23 | 1.0 | 5.0 | 0.00 | 0.41 | 0.00 | 64 | 1009.7 |
| 20260507083401 | 51 | 23 | 1.0 | 5.0 | 0.00 | 0.41 | 0.00 | 65 | 1009.7 |
| 20260507083102 | 51 | 19 | 1.0 | 4.0 | 0.00 | 0.41 | 0.00 | 64 | 1009.7 |
| 20260507083006 | 51 | 19 | 1.0 | 4.0 | 0.00 | 0.41 | 0.00 | 64 | 1009.7 |
| 20260507082900 | 51 | 19 | 2.0 | 4.0 | 0.00 | 0.41 | 0.00 | 65 | 1009.7 |
| 20260507082801 | 51 | 19 | 1.0 | 4.0 | 0.00 | 0.41 | 0.00 | 66 | 1009.8 |
| 20260507082701 | 51 | 19 | 1.0 | 4.0 | 0.00 | 0.41 | 0.00 | 65 | 1009.7 |
| 20260507082600 | 51 | 19 | 0.0 | 4.0 | 0.00 | 0.41 | 0.00 | 65 | 1009.8 |
| 20260507082505 | 51 | 19 | 0.0 | 4.0 | 0.00 | 0.41 | 0.00 | 65 | 1009.7 |
| 20260507082359 | 51 | 19 | 3.0 | 4.0 | 0.00 | 0.41 | 0.00 | 65 | 1009.7 |
| 20260507082301 | 51 | 5 | 3.0 | 6.0 | 0.00 | 0.41 | 0.00 | 64 | 1009.7 |
| 20260507082201 | 51 | 5 | 3.0 | 6.0 | 0.00 | 0.41 | 0.00 | 64 | 1009.7 |
| 20260507082101 | 51 | 5 | 1.0 | 6.0 | 0.00 | 0.41 | 0.00 | 65 | 1009.7 |
| 20260507082005 | 51 | 5 | 2.0 | 6.0 | 0.00 | 0.41 | 0.00 | 65 | 1009.7 |
| 20260507081900 | 51 | 5 | 0.0 | 6.0 | 0.00 | 0.41 | 0.00 | 66 | 1009.7 |
| 20260507081803 | 51 | 5 | 3.0 | 6.0 | 0.00 | 0.41 | 0.00 | 67 | 1009.8 |
| 20260507081701 | 51 | 5 | 1.0 | 6.0 | 0.00 | 0.41 | 0.00 | 68 | 1009.8 |
| 20260507081601 | 51 | 5 | 0.0 | 6.0 | 0.00 | 0.41 | 0.00 | 67 | 1009.8 |
| 20260507081505 | 51 | 5 | 2.0 | 6.0 | 0.00 | 0.41 | 0.00 | 65 | 1009.9 |
| 20260507081301 | 51 | 65 | 0.0 | 3.0 | 0.00 | 0.41 | 0.00 | 64 | 1009.8 |
| 20260507081201 | 51 | 65 | 1.0 | 3.0 | 0.00 | 0.41 | 0.00 | 65 | 1009.8 |
| 20260507081100 | 51 | 65 | 1.0 | 9.0 | 0.00 | 0.41 | 0.00 | 66 | 1009.8 |
| 20260507081006 | 51 | 65 | 0.0 | 9.0 | 0.00 | 0.41 | 0.00 | 66 | 1009.8 |
| 20260507080901 | 51 | 65 | 2.0 | 9.0 | 0.00 | 0.41 | 0.00 | 64 | 1009.8 |
| 20260507080601 | 51 | 342 | 1.0 | 9.0 | 0.00 | 0.41 | 0.00 | 64 | 1009.8 |
| 20260507080505 | 51 | 342 | 0.0 | 9.0 | 0.00 | 0.41 | 0.00 | 64 | 1009.7 |
| 20260507080401 | 51 | 342 | 2.0 | 9.0 | 0.00 | 0.41 | 0.00 | 63 | 1009.8 |
| 20260507080302 | 51 | 341 | 2.0 | 9.0 | 0.00 | 0.41 | 0.00 | 63 | 1009.7 |
| 20260507080201 | 51 | 341 | 1.0 | 9.0 | 0.00 | 0.41 | 0.00 | 64 | 1009.7 |
| 20260507080100 | 51 | 13 | 3.0 | 7.0 | 0.00 | 0.41 | 0.00 | 65 | 1009.7 |
| 20260507080007 | 51 | 306 | 1.0 | 5.0 | 0.00 | 0.41 | 0.00 | 65 | 1009.8 |
| 20260507075801 | 51 | 5 | 1.0 | 8.0 | 0.00 | 0.41 | 0.00 | 66 | 1009.8 |
| 20260507075702 | 51 | 5 | 0.0 | 8.0 | 0.00 | 0.41 | 0.00 | 64 | 1009.8 |
| 20260507075601 | 51 | 5 | 0.0 | 8.0 | 0.00 | 0.41 | 0.00 | 64 | 1009.8 |
| 20260507075504 | 51 | 5 | 0.0 | 8.0 | 0.00 | 0.41 | 0.00 | 64 | 1009.8 |
| 20260507075401 | 51 | 5 | 3.0 | 8.0 | 0.00 | 0.41 | 0.00 | 64 | 1009.8 |
| 20260507075202 | 51 | 11 | 3.0 | 8.0 | 0.00 | 0.41 | 0.00 | 63 | 1009.8 |
| 20260507075005 | 52 | 12 | 2.0 | 8.0 | 0.00 | 0.41 | 0.00 | 65 | 1009.8 |
| 20260507074901 | 52 | 13 | 2.0 | 8.0 | 0.00 | 0.41 | 0.00 | 65 | 1009.8 |
| 20260507074800 | 52 | 360 | 5.0 | 6.0 | 0.00 | 0.41 | 0.00 | 65 | 1009.8 |
| 20260507074700 | 52 | 242 | 1.0 | 6.0 | 0.00 | 0.41 | 0.00 | 65 | 1009.8 |
| 20260507074601 | 52 | 242 | 2.0 | 6.0 | 0.00 | 0.41 | 0.00 | 65 | 1009.8 |
| 20260507074505 | 52 | 349 | 2.0 | 6.0 | 0.00 | 0.41 | 0.00 | 64 | 1009.8 |
| 20260507074402 | 52 | 5 | 1.0 | 6.0 | 0.00 | 0.41 | 0.00 | 65 | 1009.9 |
| 20260507074301 | 52 | 5 | 2.0 | 6.0 | 0.00 | 0.41 | 0.00 | 64 | 1010.0 |
| 20260507074201 | 52 | 5 | 6.0 | 6.0 | 0.00 | 0.41 | 0.00 | 65 | 1010.0 |
| 20260507074005 | 52 | 327 | 0.0 | 6.0 | 0.00 | 0.41 | 0.00 | 65 | 1010.0 |
| 20260507073802 | 52 | 37 | 4.0 | 6.0 | 0.00 | 0.41 | 0.00 | 65 | 1010.0 |
| 20260507073701 | 52 | 16 | 1.0 | 6.0 | 0.00 | 0.41 | 0.00 | 65 | 1010.0 |
| 20260507073600 | 52 | 360 | 2.0 | 6.0 | 0.00 | 0.41 | 0.00 | 66 | 1010.0 |
| 20260507073505 | 52 | 360 | 2.0 | 6.0 | 0.00 | 0.41 | 0.00 | 67 | 1010.0 |
| 20260507073401 | 52 | 306 | 1.0 | 5.0 | 0.00 | 0.41 | 0.00 | 67 | 1010.0 |
| 20260507073301 | 52 | 306 | 0.0 | 5.0 | 0.00 | 0.41 | 0.00 | 66 | 1010.0 |
| 20260507073100 | 52 | 306 | 0.0 | 5.0 | 0.00 | 0.41 | 0.00 | 66 | 1009.9 |
| 20260507073006 | 52 | 306 | 2.0 | 8.0 | 0.00 | 0.41 | 0.00 | 66 | 1009.9 |
| 20260507072801 | 52 | 277 | 2.0 | 8.0 | 0.00 | 0.41 | 0.00 | 65 | 1009.9 |
| 20260507072700 | 52 | 310 | 4.0 | 8.0 | 0.00 | 0.41 | 0.00 | 66 | 1009.9 |
| 20260507072600 | 52 | 21 | 1.0 | 8.0 | 0.00 | 0.41 | 0.00 | 66 | 1009.8 |
| 20260507072505 | 52 | 21 | 1.0 | 8.0 | 0.00 | 0.41 | 0.00 | 65 | 1009.9 |
| 20260507072301 | 52 | 26 | 3.0 | 8.0 | 0.00 | 0.41 | 0.00 | 66 | 1009.8 |
| 20260507072201 | 52 | 9 | 1.0 | 8.0 | 0.00 | 0.41 | 0.00 | 65 | 1009.8 |
| 20260507072102 | 52 | 9 | 3.0 | 8.0 | 0.00 | 0.41 | 0.00 | 65 | 1009.8 |
| 20260507072005 | 52 | 30 | 6.0 | 6.0 | 0.00 | 0.41 | 0.00 | 67 | 1009.8 |
| 20260507071900 | 52 | 10 | 3.0 | 6.0 | 0.00 | 0.41 | 0.00 | 66 | 1009.8 |
| 20260507071801 | 52 | 300 | 0.0 | 6.0 | 0.00 | 0.41 | 0.00 | 66 | 1009.8 |
| 20260507071702 | 52 | 300 | 1.0 | 6.0 | 0.00 | 0.41 | 0.00 | 65 | 1009.8 |
| 20260507071602 | 52 | 300 | 3.0 | 6.0 | 0.00 | 0.41 | 0.00 | 67 | 1009.7 |
| 20260507071505 | 52 | 300 | 2.0 | 6.0 | 0.00 | 0.41 | 0.00 | 67 | 1009.8 |
| 20260507071400 | 52 | 19 | 1.0 | 6.0 | 0.00 | 0.41 | 0.00 | 66 | 1009.8 |
| 20260507071300 | 52 | 331 | 2.0 | 6.0 | 0.00 | 0.41 | 0.00 | 66 | 1009.8 |
| 20260507071202 | 52 | 5 | 2.0 | 6.0 | 0.00 | 0.41 | 0.00 | 66 | 1009.7 |
| 20260507071100 | 52 | 11 | 5.0 | 7.0 | 0.00 | 0.41 | 0.00 | 67 | 1009.8 |
| 20260507071005 | 52 | 327 | 6.0 | 6.0 | 0.00 | 0.41 | 0.00 | 70 | 1010.0 |
| 20260507070800 | 52 | 21 | 0.0 | 4.0 | 0.00 | 0.41 | 0.00 | 69 | 1010.0 |
| 20260507070701 | 52 | 21 | 1.0 | 4.0 | 0.00 | 0.41 | 0.00 | 69 | 1010.0 |
| 20260507070600 | 52 | 21 | 1.0 | 4.0 | 0.00 | 0.41 | 0.00 | 69 | 1009.9 |
| 20260507070202 | 52 | 22 | 0.0 | 5.0 | 0.00 | 0.41 | 0.00 | 69 | 1009.8 |
| 20260507070101 | 52 | 17 | 1.0 | 5.0 | 0.00 | 0.41 | 0.00 | 69 | 1009.9 |
| 20260507070000 | 52 | 338 | 2.0 | 5.0 | 0.00 | 0.41 | 0.00 | 71 | 1009.9 |
| 20260507065859 | 52 | 338 | 0.0 | 5.0 | 0.00 | 0.41 | 0.00 | 70 | 1009.9 |
| 20260507065700 | 52 | 338 | 0.0 | 5.0 | 0.00 | 0.41 | 0.00 | 69 | 1009.8 |
| 20260507065505 | 52 | 338 | 0.0 | 5.0 | 0.00 | 0.41 | 0.00 | 70 | 1009.8 |
| 20260507065359 | 52 | 338 | 3.0 | 5.0 | 0.00 | 0.41 | 0.00 | 71 | 1009.8 |
| 20260507065301 | 52 | 24 | 3.0 | 5.0 | 0.00 | 0.41 | 0.00 | 72 | 1009.8 |
| 20260507065159 | 52 | 24 | 0.0 | 5.0 | 0.00 | 0.41 | 0.00 | 71 | 1009.8 |
| 20260507065101 | 52 | 24 | 1.0 | 5.0 | 0.00 | 0.41 | 0.00 | 71 | 1009.8 |
| 20260507065005 | 52 | 25 | 0.0 | 5.0 | 0.00 | 0.41 | 0.00 | 72 | 1009.8 |
| 20260507064700 | 52 | 26 | 3.0 | 5.0 | 0.00 | 0.41 | 0.00 | 72 | 1009.8 |
| 20260507064559 | 52 | 308 | 2.0 | 3.0 | 0.00 | 0.41 | 0.00 | 73 | 1009.8 |
| 20260507064400 | 52 | 308 | 1.0 | 5.0 | 0.00 | 0.41 | 0.00 | 72 | 1009.8 |
| 20260507064259 | 52 | 308 | 0.0 | 5.0 | 0.00 | 0.41 | 0.00 | 74 | 1009.7 |
| 20260507064200 | 52 | 308 | 2.0 | 5.0 | 0.00 | 0.41 | 0.00 | 74 | 1009.8 |
| 20260507064059 | 52 | 308 | 1.0 | 5.0 | 0.00 | 0.41 | 0.00 | 75 | 1009.7 |
| 20260507064003 | 52 | 308 | 1.0 | 5.0 | 0.00 | 0.41 | 0.00 | 74 | 1009.6 |
| 20260507063900 | 52 | 308 | 0.0 | 5.0 | 0.00 | 0.41 | 0.00 | 74 | 1009.6 |
| 20260507063803 | 52 | 308 | 2.0 | 5.0 | 0.00 | 0.41 | 0.00 | 74 | 1009.6 |
| 20260507063700 | 52 | 308 | 3.0 | 5.0 | 0.00 | 0.41 | 0.00 | 75 | 1009.7 |
| 20260507063600 | 52 | 317 | 0.0 | 5.0 | 0.00 | 0.41 | 0.00 | 75 | 1009.6 |
| 20260507063505 | 52 | 317 | 2.0 | 5.0 | 0.00 | 0.41 | 0.00 | 76 | 1009.6 |
| 20260507063400 | 52 | 36 | 3.0 | 4.0 | 0.00 | 0.41 | 0.00 | 77 | 1009.6 |
| 20260507063301 | 52 | 37 | 0.0 | 4.0 | 0.00 | 0.41 | 0.00 | 78 | 1009.6 |
| 20260507063200 | 52 | 37 | 0.0 | 4.0 | 0.00 | 0.41 | 0.00 | 77 | 1009.7 |
| 20260507063058 | 52 | 37 | 1.0 | 4.0 | 0.00 | 0.41 | 0.00 | 78 | 1009.7 |
| 20260507062901 | 52 | 37 | 0.0 | 4.0 | 0.00 | 0.41 | 0.00 | 78 | 1009.7 |
| 20260507062800 | 52 | 37 | 1.0 | 4.0 | 0.00 | 0.41 | 0.00 | 79 | 1009.7 |
| 20260507062700 | 52 | 37 | 1.0 | 4.0 | 0.00 | 0.41 | 0.00 | 80 | 1009.7 |
| 20260507062559 | 52 | 37 | 1.0 | 4.0 | 0.00 | 0.41 | 0.00 | 80 | 1009.7 |
| 20260507062504 | 52 | 38 | 0.0 | 4.0 | 0.00 | 0.41 | 0.00 | 80 | 1009.7 |
| 20260507062400 | 52 | 38 | 1.0 | 4.0 | 0.00 | 0.41 | 0.00 | 79 | 1009.7 |
| 20260507062159 | 52 | 38 | 3.0 | 4.0 | 0.00 | 0.41 | 0.00 | 80 | 1009.7 |
| 20260507062100 | 52 | 38 | 3.0 | 4.0 | 0.00 | 0.41 | 0.00 | 80 | 1009.8 |
| 20260507062006 | 52 | 38 | 4.0 | 4.0 | 0.00 | 0.41 | 0.00 | 81 | 1009.8 |
| 20260507061901 | 52 | 228 | 0.0 | 4.0 | 0.00 | 0.41 | 0.00 | 81 | 1009.8 |
| 20260507061800 | 52 | 228 | 0.0 | 4.0 | 0.00 | 0.41 | 0.00 | 80 | 1009.7 |
| 20260507061701 | 52 | 228 | 0.0 | 5.0 | 0.00 | 0.41 | 0.00 | 80 | 1009.7 |
| 20260507061601 | 52 | 228 | 4.0 | 5.0 | 0.00 | 0.41 | 0.00 | 81 | 1009.7 |
| 20260507061504 | 53 | 227 | 0.0 | 5.0 | 0.00 | 0.41 | 0.00 | 80 | 1009.7 |
| 20260507061401 | 53 | 227 | 0.0 | 5.0 | 0.00 | 0.41 | 0.00 | 80 | 1009.7 |
| 20260507061300 | 53 | 227 | 1.0 | 8.0 | 0.00 | 0.41 | 0.00 | 80 | 1009.7 |
| 20260507061005 | 53 | 333 | 2.0 | 8.0 | 0.00 | 0.41 | 0.00 | 80 | 1009.8 |
| 20260507060901 | 53 | 333 | 3.0 | 8.0 | 0.00 | 0.41 | 0.00 | 80 | 1009.7 |
| 20260507060800 | 53 | 319 | 2.0 | 8.0 | 0.00 | 0.41 | 0.00 | 80 | 1009.7 |
| 20260507060700 | 53 | 265 | 1.0 | 8.0 | 0.00 | 0.41 | 0.00 | 80 | 1009.7 |
| 20260507060600 | 53 | 265 | 1.0 | 8.0 | 0.00 | 0.41 | 0.00 | 80 | 1009.7 |
| 20260507060400 | 53 | 345 | 3.0 | 8.0 | 0.00 | 0.41 | 0.00 | 81 | 1009.8 |
| 20260507060300 | 53 | 289 | 2.0 | 6.0 | 0.00 | 0.41 | 0.00 | 82 | 1009.7 |
| 20260507060200 | 53 | 348 | 5.0 | 6.0 | 0.00 | 0.41 | 0.00 | 82 | 1009.8 |
| 20260507060100 | 53 | 339 | 1.0 | 5.0 | 0.00 | 0.41 | 0.00 | 82 | 1009.7 |
| 20260507060006 | 53 | 339 | 1.0 | 5.0 | 0.00 | 0.41 | 0.00 | 82 | 1009.8 |
| 20260507055900 | 53 | 267 | 6.0 | 6.0 | 0.00 | 0.41 | 0.00 | 83 | 1009.8 |
| 20260507055800 | 53 | 290 | 0.0 | 5.0 | 0.00 | 0.41 | 0.00 | 83 | 1009.8 |
| 20260507055701 | 53 | 290 | 3.0 | 5.0 | 0.00 | 0.41 | 0.00 | 83 | 1009.8 |
| 20260507055602 | 53 | 290 | 0.0 | 5.0 | 0.00 | 0.41 | 0.00 | 83 | 1009.8 |
| 20260507055504 | 53 | 317 | 2.0 | 5.0 | 0.00 | 0.41 | 0.00 | 83 | 1009.8 |
| 20260507055401 | 53 | 319 | 2.0 | 5.0 | 0.00 | 0.41 | 0.00 | 83 | 1009.8 |
| 20260507055300 | 53 | 319 | 1.0 | 5.0 | 0.00 | 0.41 | 0.00 | 83 | 1009.8 |
| 20260507055202 | 53 | 317 | 0.0 | 6.0 | 0.00 | 0.41 | 0.00 | 83 | 1009.8 |
| 20260507054901 | 53 | 328 | 2.0 | 6.0 | 0.00 | 0.41 | 0.00 | 85 | 1009.6 |
| 20260507054702 | 53 | 329 | 0.0 | 6.0 | 0.00 | 0.41 | 0.00 | 85 | 1009.7 |
| 20260507054601 | 53 | 329 | 2.0 | 6.0 | 0.00 | 0.41 | 0.00 | 85 | 1009.6 |
| 20260507054506 | 53 | 329 | 0.0 | 6.0 | 0.00 | 0.41 | 0.00 | 85 | 1009.6 |
| 20260507054302 | 53 | 343 | 1.0 | 7.0 | 0.00 | 0.41 | 0.00 | 85 | 1009.7 |
| 20260507054202 | 53 | 33 | 2.0 | 4.0 | 0.00 | 0.41 | 0.00 | 86 | 1009.7 |
| 20260507054103 | 53 | 33 | 0.0 | 5.0 | 0.00 | 0.41 | 0.00 | 86 | 1009.7 |
| 20260507054005 | 53 | 33 | 0.0 | 8.0 | 0.00 | 0.41 | 0.00 | 86 | 1009.7 |
| 20260507053901 | 53 | 33 | 2.0 | 8.0 | 0.00 | 0.41 | 0.00 | 86 | 1009.7 |
| 20260507053801 | 53 | 33 | 0.0 | 8.0 | 0.00 | 0.41 | 0.00 | 86 | 1009.7 |
| 20260507053702 | 53 | 33 | 1.0 | 8.0 | 0.00 | 0.41 | 0.00 | 86 | 1009.7 |
| 20260507053601 | 53 | 33 | 1.0 | 8.0 | 0.00 | 0.41 | 0.00 | 86 | 1009.7 |
| 20260507053506 | 53 | 34 | 0.0 | 8.0 | 0.00 | 0.41 | 0.00 | 86 | 1009.7 |
| 20260507053401 | 53 | 34 | 0.0 | 8.0 | 0.00 | 0.41 | 0.00 | 86 | 1009.7 |
| 20260507053301 | 53 | 34 | 1.0 | 8.0 | 0.00 | 0.41 | 0.00 | 86 | 1009.8 |
| 20260507053202 | 53 | 50 | 3.0 | 8.0 | 0.00 | 0.41 | 0.00 | 86 | 1009.8 |
| 20260507053102 | 53 | 360 | 8.0 | 8.0 | 0.00 | 0.41 | 0.00 | 87 | 1009.8 |
| 20260507053006 | 53 | 166 | 4.0 | 4.0 | 0.00 | 0.41 | 0.00 | 87 | 1009.8 |
| 20260507052900 | 53 | 165 | 2.0 | 4.0 | 0.00 | 0.41 | 0.00 | 87 | 1009.8 |
| 20260507052701 | 53 | 9 | 0.0 | 4.0 | 0.00 | 0.41 | 0.00 | 87 | 1009.7 |
| 20260507052601 | 53 | 5 | 2.0 | 4.0 | 0.00 | 0.41 | 0.00 | 88 | 1009.7 |
| 20260507052505 | 53 | 9 | 1.0 | 4.0 | 0.00 | 0.41 | 0.00 | 88 | 1009.8 |
| 20260507052402 | 53 | 9 | 0.0 | 4.0 | 0.00 | 0.41 | 0.00 | 88 | 1009.8 |
| 20260507052300 | 53 | 9 | 1.0 | 4.0 | 0.00 | 0.41 | 0.00 | 88 | 1009.7 |
| 20260507052201 | 53 | 9 | 1.0 | 4.0 | 0.00 | 0.41 | 0.00 | 88 | 1009.7 |
| 20260507052101 | 53 | 5 | 0.0 | 4.0 | 0.00 | 0.41 | 0.00 | 88 | 1009.7 |
| 20260507052005 | 53 | 9 | 0.0 | 4.0 | 0.00 | 0.41 | 0.00 | 88 | 1009.6 |
| 20260507051901 | 53 | 9 | 0.0 | 4.0 | 0.00 | 0.41 | 0.00 | 88 | 1009.7 |
| 20260507051801 | 53 | 9 | 1.0 | 4.0 | 0.00 | 0.41 | 0.00 | 88 | 1009.7 |
| 20260507051701 | 53 | 9 | 2.0 | 4.0 | 0.00 | 0.41 | 0.00 | 88 | 1009.7 |
| 20260507051402 | 53 | 9 | 2.0 | 6.0 | 0.00 | 0.41 | 0.00 | 89 | 1009.7 |
| 20260507051300 | 53 | 9 | 2.0 | 6.0 | 0.00 | 0.41 | 0.00 | 89 | 1009.8 |
| 20260507051201 | 53 | 9 | 2.0 | 6.0 | 0.00 | 0.41 | 0.00 | 89 | 1009.8 |
| 20260507051101 | 53 | 9 | 1.0 | 6.0 | 0.00 | 0.41 | 0.00 | 89 | 1009.8 |
| 20260507051005 | 53 | 9 | 3.0 | 6.0 | 0.00 | 0.41 | 0.00 | 89 | 1009.8 |
| 20260507050801 | 53 | 9 | 1.0 | 6.0 | 0.00 | 0.41 | 0.00 | 89 | 1009.9 |
| 20260507050700 | 53 | 9 | 4.0 | 6.0 | 0.00 | 0.41 | 0.00 | 89 | 1009.9 |
| 20260507050600 | 53 | 13 | 4.0 | 5.0 | 0.00 | 0.41 | 0.00 | 90 | 1009.8 |
| 20260507050505 | 53 | 30 | 3.0 | 8.0 | 0.00 | 0.41 | 0.00 | 90 | 1009.8 |
| 20260507050402 | 53 | 317 | 2.0 | 8.0 | 0.00 | 0.41 | 0.00 | 89 | 1009.8 |
| 20260507050301 | 53 | 316 | 1.0 | 8.0 | 0.00 | 0.41 | 0.00 | 89 | 1009.7 |
| 20260507050201 | 53 | 315 | 2.0 | 8.0 | 0.00 | 0.41 | 0.00 | 89 | 1009.6 |
| 20260507050100 | 53 | 330 | 3.0 | 8.0 | 0.00 | 0.41 | 0.00 | 90 | 1009.6 |
| 20260507045900 | 53 | 5 | 3.0 | 8.0 | 0.00 | 0.41 | 0.00 | 90 | 1009.6 |
| 20260507045800 | 53 | 5 | 3.0 | 8.0 | 0.00 | 0.41 | 0.00 | 90 | 1009.6 |
| 20260507045659 | 53 | 5 | 2.0 | 8.0 | 0.00 | 0.41 | 0.00 | 90 | 1009.6 |
| 20260507045600 | 53 | 15 | 5.0 | 6.0 | 0.00 | 0.41 | 0.00 | 90 | 1009.6 |
| 20260507045505 | 53 | 14 | 2.0 | 6.0 | 0.00 | 0.41 | 0.00 | 90 | 1009.6 |
| 20260507045300 | 53 | 355 | 1.0 | 5.0 | 0.00 | 0.41 | 0.00 | 89 | 1009.6 |
| 20260507045200 | 53 | 355 | 2.0 | 5.0 | 0.00 | 0.41 | 0.00 | 89 | 1009.7 |
| 20260507045059 | 53 | 360 | 3.0 | 5.0 | 0.00 | 0.41 | 0.00 | 89 | 1009.8 |
| 20260507045005 | 53 | 9 | 3.0 | 5.0 | 0.00 | 0.41 | 0.00 | 89 | 1009.8 |
| 20260507044502 | 53 | 9 | 4.0 | 4.0 | 0.00 | 0.41 | 0.00 | 89 | 1009.9 |
| 20260507044300 | 53 | 334 | 4.0 | 4.0 | 0.00 | 0.41 | 0.00 | 89 | 1009.9 |
| 20260507044005 | 53 | 13 | 1.0 | 6.0 | 0.00 | 0.41 | 0.00 | 89 | 1010.0 |
| 20260507043900 | 53 | 16 | 2.0 | 6.0 | 0.00 | 0.41 | 0.00 | 89 | 1010.0 |
| 20260507043800 | 54 | 16 | 3.0 | 6.0 | 0.00 | 0.41 | 0.00 | 89 | 1010.1 |
| 20260507043659 | 54 | 18 | 2.0 | 9.0 | 0.00 | 0.41 | 0.00 | 89 | 1010.2 |
| 20260507043601 | 54 | 17 | 1.0 | 9.0 | 0.00 | 0.41 | 0.00 | 89 | 1010.2 |
| 20260507043505 | 54 | 17 | 3.0 | 9.0 | 0.00 | 0.41 | 0.00 | 89 | 1010.1 |
| 20260507043400 | 54 | 23 | 2.0 | 9.0 | 0.00 | 0.41 | 0.00 | 89 | 1010.1 |
| 20260507043300 | 54 | 28 | 3.0 | 9.0 | 0.00 | 0.41 | 0.00 | 89 | 1010.0 |
| 20260507043200 | 54 | 5 | 2.0 | 9.0 | 0.00 | 0.41 | 0.00 | 89 | 1009.9 |
| 20260507043059 | 54 | 5 | 2.0 | 9.0 | 0.00 | 0.41 | 0.00 | 89 | 1009.9 |
| 20260507043003 | 54 | 360 | 3.0 | 9.0 | 0.00 | 0.41 | 0.00 | 89 | 1009.9 |
| 20260507042900 | 54 | 20 | 4.0 | 9.0 | 0.00 | 0.41 | 0.00 | 89 | 1009.8 |
| 20260507042801 | 54 | 30 | 4.0 | 9.0 | 0.00 | 0.41 | 0.00 | 89 | 1009.8 |
| 20260507042700 | 54 | 13 | 4.0 | 9.0 | 0.00 | 0.41 | 0.00 | 89 | 1009.8 |
| 20260507042600 | 54 | 13 | 3.0 | 9.0 | 0.00 | 0.41 | 0.00 | 89 | 1009.8 |
| 20260507042505 | 54 | 16 | 3.0 | 9.0 | 0.00 | 0.41 | 0.00 | 89 | 1009.8 |
| 20260507042400 | 54 | 5 | 2.0 | 9.0 | 0.00 | 0.41 | 0.00 | 89 | 1009.8 |
| 20260507042259 | 54 | 360 | 3.0 | 9.0 | 0.00 | 0.41 | 0.00 | 89 | 1009.7 |
| 20260507042201 | 54 | 360 | 2.0 | 9.0 | 0.00 | 0.41 | 0.00 | 89 | 1009.7 |
| 20260507042101 | 54 | 27 | 3.0 | 5.0 | 0.00 | 0.41 | 0.00 | 89 | 1009.8 |
| 20260507042006 | 54 | 5 | 2.0 | 5.0 | 0.00 | 0.41 | 0.00 | 88 | 1009.8 |
| 20260507041900 | 54 | 5 | 2.0 | 5.0 | 0.00 | 0.41 | 0.00 | 89 | 1009.8 |
| 20260507041800 | 54 | 5 | 3.0 | 5.0 | 0.00 | 0.41 | 0.00 | 89 | 1009.8 |
| 20260507041700 | 54 | 9 | 4.0 | 5.0 | 0.00 | 0.41 | 0.00 | 88 | 1009.8 |
| 20260507041600 | 54 | 9 | 5.0 | 5.0 | 0.00 | 0.41 | 0.00 | 88 | 1009.8 |
| 20260507041505 | 54 | 39 | 3.0 | 5.0 | 0.00 | 0.41 | 0.00 | 88 | 1009.8 |
| 20260507041400 | 54 | 39 | 2.0 | 5.0 | 0.00 | 0.41 | 0.00 | 88 | 1009.8 |
| 20260507041300 | 54 | 40 | 2.0 | 6.0 | 0.00 | 0.41 | 0.00 | 88 | 1009.8 |
| 20260507041200 | 54 | 40 | 3.0 | 6.0 | 0.00 | 0.41 | 0.00 | 88 | 1009.8 |
| 20260507041005 | 54 | 42 | 4.0 | 6.0 | 0.00 | 0.41 | 0.00 | 88 | 1009.8 |
| 20260507040900 | 54 | 42 | 2.0 | 6.0 | 0.00 | 0.41 | 0.00 | 88 | 1009.9 |
| 20260507040759 | 54 | 42 | 3.0 | 6.0 | 0.00 | 0.41 | 0.00 | 87 | 1009.9 |
| 20260507040700 | 54 | 44 | 2.0 | 6.0 | 0.00 | 0.41 | 0.00 | 87 | 1010.0 |
| 20260507040559 | 54 | 46 | 4.0 | 6.0 | 0.00 | 0.41 | 0.00 | 87 | 1010.0 |
| 20260507040505 | 54 | 56 | 4.0 | 6.0 | 0.00 | 0.41 | 0.00 | 87 | 1010.0 |
| 20260507040400 | 54 | 77 | 1.0 | 6.0 | 0.00 | 0.41 | 0.00 | 88 | 1009.9 |
| 20260507040300 | 54 | 46 | 6.0 | 6.0 | 0.00 | 0.41 | 0.00 | 88 | 1009.9 |
| 20260507040200 | 55 | 5 | 4.0 | 5.0 | 0.00 | 0.41 | 0.00 | 88 | 1009.9 |
| 20260507040008 | 55 | 24 | 1.0 | 5.0 | 0.00 | 0.41 | 0.41 | 87 | 1009.8 |
| 20260507035901 | 55 | 24 | 1.0 | 5.0 | 0.00 | 0.41 | 0.41 | 87 | 1009.9 |
| 20260507035801 | 55 | 24 | 1.0 | 5.0 | 0.00 | 0.41 | 0.41 | 87 | 1009.9 |
| 20260507035702 | 55 | 24 | 0.0 | 5.0 | 0.00 | 0.41 | 0.41 | 87 | 1009.9 |
| 20260507035603 | 55 | 24 | 2.0 | 5.0 | 0.00 | 0.41 | 0.41 | 87 | 1009.8 |
| 20260507035505 | 55 | 23 | 1.0 | 5.0 | 0.00 | 0.41 | 0.41 | 86 | 1009.8 |
| 20260507035402 | 55 | 23 | 2.0 | 5.0 | 0.00 | 0.41 | 0.41 | 86 | 1009.8 |
| 20260507035306 | 55 | 23 | 2.0 | 5.0 | 0.00 | 0.41 | 0.41 | 86 | 1009.8 |
| 20260507035202 | 55 | 23 | 3.0 | 5.0 | 0.00 | 0.41 | 0.41 | 86 | 1009.9 |
| 20260507035101 | 55 | 5 | 3.0 | 4.0 | 0.00 | 0.41 | 0.41 | 86 | 1009.9 |
| 20260507035006 | 55 | 5 | 0.0 | 4.0 | 0.00 | 0.41 | 0.41 | 86 | 1009.9 |
| 20260507034902 | 55 | 5 | 0.0 | 4.0 | 0.00 | 0.41 | 0.41 | 86 | 1009.9 |
| 20260507034803 | 55 | 5 | 0.0 | 4.0 | 0.00 | 0.41 | 0.41 | 85 | 1009.7 |
| 20260507034702 | 55 | 5 | 0.0 | 4.0 | 0.00 | 0.41 | 0.41 | 85 | 1009.6 |
| 20260507034602 | 55 | 5 | 0.0 | 4.0 | 0.00 | 0.41 | 0.41 | 85 | 1009.5 |
| 20260507034506 | 55 | 5 | 2.0 | 4.0 | 0.00 | 0.41 | 0.41 | 85 | 1009.5 |
| 20260507034403 | 55 | 9 | 2.0 | 4.0 | 0.00 | 0.41 | 0.41 | 85 | 1009.6 |
| 20260507034301 | 55 | 10 | 0.0 | 4.0 | 0.00 | 0.41 | 0.41 | 85 | 1009.6 |
| 20260507034201 | 55 | 11 | 0.0 | 4.0 | 0.00 | 0.41 | 0.41 | 85 | 1009.7 |
| 20260507034102 | 55 | 11 | 2.0 | 4.0 | 0.00 | 0.41 | 0.41 | 85 | 1009.7 |
| 20260507033902 | 55 | 342 | 2.0 | 3.0 | 0.00 | 0.41 | 0.41 | 85 | 1009.6 |
| 20260507033802 | 55 | 342 | 0.0 | 3.0 | 0.00 | 0.41 | 0.41 | 85 | 1009.5 |
| 20260507033702 | 55 | 342 | 1.0 | 3.0 | 0.00 | 0.41 | 0.41 | 85 | 1009.5 |
| 20260507033602 | 55 | 342 | 1.0 | 3.0 | 0.00 | 0.41 | 0.41 | 85 | 1009.4 |
| 20260507033505 | 55 | 342 | 0.0 | 3.0 | 0.00 | 0.41 | 0.41 | 85 | 1009.4 |
| 20260507033403 | 55 | 342 | 0.0 | 3.0 | 0.00 | 0.41 | 0.41 | 85 | 1009.4 |
| 20260507033302 | 55 | 342 | 0.0 | 3.0 | 0.00 | 0.41 | 0.41 | 85 | 1009.4 |
| 20260507033201 | 55 | 342 | 0.0 | 4.0 | 0.00 | 0.41 | 0.41 | 85 | 1009.4 |
| 20260507033101 | 55 | 342 | 0.0 | 4.0 | 0.00 | 0.41 | 0.41 | 85 | 1009.4 |
| 20260507033006 | 55 | 342 | 2.0 | 5.0 | 0.00 | 0.41 | 0.41 | 85 | 1009.5 |
| 20260507032703 | 55 | 342 | 0.0 | 6.0 | 0.00 | 0.41 | 0.41 | 85 | 1009.6 |
| 20260507032603 | 55 | 342 | 1.0 | 6.0 | 0.00 | 0.41 | 0.41 | 85 | 1009.6 |
| 20260507032301 | 55 | 24 | 0.0 | 8.0 | 0.00 | 0.41 | 0.41 | 85 | 1009.3 |
| 20260507032201 | 55 | 24 | 0.0 | 8.0 | 0.00 | 0.41 | 0.41 | 85 | 1009.2 |
| 20260507032102 | 55 | 24 | 1.0 | 8.0 | 0.00 | 0.41 | 0.41 | 84 | 1009.1 |
| 20260507032006 | 55 | 5 | 4.0 | 8.0 | 0.00 | 0.41 | 0.41 | 85 | 1009.1 |
| 20260507031902 | 55 | 19 | 3.0 | 8.0 | 0.00 | 0.41 | 0.41 | 86 | 1009.1 |
| 20260507031802 | 55 | 298 | 1.0 | 8.0 | 0.00 | 0.41 | 0.41 | 85 | 1009.0 |
| 20260507031702 | 55 | 298 | 0.0 | 8.0 | 0.00 | 0.41 | 0.41 | 85 | 1009.1 |
| 20260507031602 | 55 | 5 | 1.0 | 8.0 | 0.00 | 0.41 | 0.41 | 85 | 1009.0 |
| 20260507031507 | 55 | 5 | 2.0 | 8.0 | 0.00 | 0.41 | 0.41 | 84 | 1008.9 |
| 20260507031402 | 55 | 5 | 8.0 | 8.0 | 0.00 | 0.41 | 0.41 | 85 | 1008.8 |
| 20260507031303 | 55 | 290 | 1.0 | 4.0 | 0.00 | 0.41 | 0.41 | 85 | 1008.9 |
| 20260507031203 | 55 | 290 | 1.0 | 4.0 | 0.00 | 0.41 | 0.41 | 85 | 1009.0 |
| 20260507031102 | 55 | 290 | 2.0 | 4.0 | 0.00 | 0.41 | 0.41 | 85 | 1009.0 |
| 20260507031005 | 55 | 290 | 1.0 | 4.0 | 0.00 | 0.41 | 0.41 | 85 | 1009.0 |
| 20260507030903 | 56 | 290 | 3.0 | 4.0 | 0.00 | 0.41 | 0.41 | 85 | 1009.2 |
| 20260507030801 | 56 | 290 | 4.0 | 4.0 | 0.00 | 0.41 | 0.41 | 85 | 1009.2 |
| 20260507030703 | 56 | 289 | 3.0 | 4.0 | 0.00 | 0.41 | 0.41 | 86 | 1009.3 |
| 20260507030602 | 56 | 289 | 0.0 | 4.0 | 0.00 | 0.41 | 0.41 | 86 | 1009.3 |
| 20260507030506 | 56 | 289 | 1.0 | 4.0 | 0.00 | 0.41 | 0.41 | 85 | 1009.4 |
| 20260507030301 | 56 | 289 | 0.0 | 4.0 | 0.00 | 0.41 | 0.41 | 85 | 1009.4 |
| 20260507030202 | 56 | 289 | 1.0 | 6.0 | 0.00 | 0.41 | 0.41 | 85 | 1009.4 |
| 20260507030006 | 56 | 284 | 2.0 | 6.0 | 0.00 | 0.41 | 0.41 | 86 | 1009.2 |
| 20260507025903 | 56 | 278 | 2.0 | 6.0 | 0.00 | 0.41 | 0.41 | 86 | 1009.2 |
| 20260507025802 | 56 | 278 | 2.0 | 6.0 | 0.00 | 0.41 | 0.41 | 86 | 1009.3 |
| 20260507025703 | 56 | 277 | 0.0 | 6.0 | 0.00 | 0.41 | 0.41 | 86 | 1009.4 |
| 20260507025603 | 56 | 355 | 2.0 | 6.0 | 0.00 | 0.41 | 0.41 | 86 | 1009.4 |
| 20260507025506 | 56 | 10 | 2.0 | 6.0 | 0.00 | 0.41 | 0.41 | 86 | 1009.4 |
| 20260507025402 | 56 | 10 | 1.0 | 7.0 | 0.00 | 0.41 | 0.41 | 86 | 1009.4 |
| 20260507025305 | 56 | 10 | 3.0 | 7.0 | 0.00 | 0.41 | 0.41 | 86 | 1009.3 |
| 20260507025202 | 56 | 355 | 3.0 | 7.0 | 0.00 | 0.41 | 0.41 | 86 | 1009.3 |
| 20260507024903 | 56 | 51 | 3.0 | 7.0 | 0.00 | 0.41 | 0.41 | 86 | 1009.3 |
| 20260507024802 | 56 | 5 | 2.0 | 7.0 | 0.00 | 0.41 | 0.41 | 86 | 1009.2 |
| 20260507024702 | 56 | 5 | 2.0 | 7.0 | 0.00 | 0.41 | 0.41 | 86 | 1009.3 |
| 20260507024603 | 56 | 5 | 1.0 | 7.0 | 0.00 | 0.41 | 0.41 | 86 | 1009.3 |
| 20260507024506 | 56 | 26 | 5.0 | 7.0 | 0.00 | 0.41 | 0.41 | 86 | 1009.3 |
| 20260507024402 | 56 | 355 | 3.0 | 8.0 | 0.00 | 0.41 | 0.41 | 86 | 1009.3 |
| 20260507024303 | 56 | 342 | 0.0 | 8.0 | 0.00 | 0.41 | 0.41 | 86 | 1009.4 |
| 20260507024202 | 56 | 342 | 2.0 | 8.0 | 0.00 | 0.41 | 0.41 | 86 | 1009.4 |
| 20260507024103 | 56 | 346 | 5.0 | 8.0 | 0.00 | 0.41 | 0.41 | 85 | 1009.4 |
| 20260507024006 | 56 | 14 | 2.0 | 8.0 | 0.00 | 0.41 | 0.41 | 86 | 1009.4 |
| 20260507023904 | 56 | 14 | 1.0 | 8.0 | 0.00 | 0.41 | 0.41 | 85 | 1009.4 |
| 20260507023802 | 56 | 14 | 2.0 | 8.0 | 0.00 | 0.41 | 0.41 | 86 | 1009.5 |
| 20260507023703 | 56 | 14 | 1.0 | 8.0 | 0.00 | 0.41 | 0.41 | 85 | 1009.4 |
| 20260507023603 | 56 | 14 | 0.0 | 9.0 | 0.00 | 0.41 | 0.41 | 85 | 1009.3 |
| 20260507023506 | 56 | 14 | 2.0 | 9.0 | 0.00 | 0.41 | 0.41 | 85 | 1009.3 |
| 20260507023402 | 56 | 5 | 6.0 | 9.0 | 0.00 | 0.41 | 0.41 | 85 | 1009.4 |
| 20260507023302 | 56 | 333 | 3.0 | 9.0 | 0.00 | 0.41 | 0.41 | 85 | 1009.5 |
| 20260507023201 | 56 | 326 | 4.0 | 9.0 | 0.00 | 0.41 | 0.41 | 85 | 1009.4 |
| 20260507023102 | 56 | 5 | 1.0 | 9.0 | 0.00 | 0.41 | 0.41 | 85 | 1009.4 |
| 20260507023006 | 56 | 5 | 0.0 | 9.0 | 0.00 | 0.41 | 0.41 | 85 | 1009.4 |
| 20260507022902 | 56 | 5 | 1.0 | 9.0 | 0.00 | 0.41 | 0.41 | 85 | 1009.4 |
| 20260507022801 | 56 | 5 | 3.0 | 9.0 | 0.00 | 0.41 | 0.41 | 85 | 1009.3 |
| 20260507022701 | 56 | 5 | 5.0 | 9.0 | 0.00 | 0.41 | 0.41 | 85 | 1009.4 |
| 20260507022602 | 56 | 322 | 2.0 | 6.0 | 0.00 | 0.41 | 0.41 | 85 | 1009.4 |
| 20260507022506 | 56 | 351 | 2.0 | 6.0 | 0.00 | 0.41 | 0.41 | 85 | 1009.4 |
| 20260507022401 | 56 | 318 | 4.0 | 6.0 | 0.00 | 0.41 | 0.41 | 85 | 1009.4 |
| 20260507022306 | 56 | 339 | 1.0 | 6.0 | 0.00 | 0.41 | 0.41 | 85 | 1009.4 |
| 20260507022202 | 56 | 339 | 1.0 | 6.0 | 0.00 | 0.41 | 0.41 | 85 | 1009.4 |
| 20260507022006 | 56 | 339 | 1.0 | 6.0 | 0.00 | 0.41 | 0.41 | 85 | 1009.3 |
| 20260507021903 | 56 | 339 | 1.0 | 6.0 | 0.00 | 0.41 | 0.41 | 85 | 1009.2 |
| 20260507021801 | 56 | 339 | 1.0 | 6.0 | 0.00 | 0.41 | 0.41 | 85 | 1009.2 |
| 20260507021702 | 56 | 339 | 2.0 | 6.0 | 0.00 | 0.41 | 0.41 | 85 | 1009.1 |
| 20260507021603 | 56 | 5 | 6.0 | 8.0 | 0.00 | 0.41 | 0.41 | 85 | 1009.1 |
| 20260507021506 | 57 | 345 | 1.0 | 8.0 | 0.00 | 0.41 | 0.41 | 85 | 1009.2 |
| 20260507021404 | 57 | 345 | 4.0 | 8.0 | 0.00 | 0.41 | 0.41 | 84 | 1009.1 |
| 20260507021302 | 57 | 21 | 5.0 | 8.0 | 0.00 | 0.41 | 0.41 | 84 | 1009.1 |
| 20260507021202 | 57 | 293 | 1.0 | 8.0 | 0.00 | 0.41 | 0.41 | 84 | 1009.0 |
| 20260507021006 | 57 | 26 | 1.0 | 10.0 | 0.00 | 0.41 | 0.41 | 84 | 1009.0 |
| 20260507020902 | 57 | 355 | 3.0 | 10.0 | 0.00 | 0.41 | 0.41 | 84 | 1009.0 |
| 20260507020802 | 57 | 355 | 3.0 | 10.0 | 0.00 | 0.41 | 0.41 | 84 | 1009.0 |
| 20260507020702 | 57 | 355 | 2.0 | 14.0 | 0.00 | 0.41 | 0.41 | 84 | 1009.0 |
| 20260507020603 | 57 | 22 | 8.0 | 14.0 | 0.00 | 0.41 | 0.41 | 84 | 1009.0 |
| 20260507020506 | 57 | 323 | 4.0 | 14.0 | 0.00 | 0.41 | 0.41 | 84 | 1009.0 |
| 20260507020401 | 57 | 315 | 3.0 | 14.0 | 0.00 | 0.41 | 0.41 | 85 | 1009.0 |
| 20260507020302 | 57 | 347 | 3.0 | 14.0 | 0.00 | 0.41 | 0.41 | 85 | 1009.0 |
| 20260507020202 | 57 | 360 | 5.0 | 14.0 | 0.00 | 0.41 | 0.41 | 85 | 1009.0 |
| 20260507020006 | 57 | 347 | 4.0 | 14.0 | 0.00 | 0.41 | 0.41 | 85 | 1009.0 |
| 20260507015903 | 57 | 355 | 6.0 | 14.0 | 0.00 | 0.41 | 0.41 | 86 | 1009.0 |
| 20260507015801 | 57 | 355 | 5.0 | 14.0 | 0.00 | 0.41 | 0.41 | 86 | 1009.0 |
| 20260507015602 | 57 | 331 | 3.0 | 10.0 | 0.00 | 0.41 | 0.41 | 87 | 1009.0 |
| 20260507015507 | 57 | 9 | 3.0 | 10.0 | 0.00 | 0.41 | 0.41 | 87 | 1008.9 |
| 20260507015402 | 57 | 342 | 6.0 | 10.0 | 0.00 | 0.41 | 0.41 | 87 | 1008.9 |
| 20260507015305 | 57 | 9 | 4.0 | 10.0 | 0.00 | 0.41 | 0.41 | 87 | 1009.0 |
| 20260507015203 | 57 | 5 | 6.0 | 10.0 | 0.00 | 0.41 | 0.41 | 87 | 1009.0 |
| 20260507015103 | 57 | 17 | 4.0 | 5.0 | 0.00 | 0.41 | 0.41 | 87 | 1009.1 |
| 20260507015006 | 57 | 315 | 2.0 | 4.0 | 0.00 | 0.41 | 0.41 | 87 | 1009.1 |
| 20260507014902 | 57 | 315 | 1.0 | 3.0 | 0.00 | 0.41 | 0.41 | 87 | 1009.1 |
| 20260507014701 | 57 | 344 | 2.0 | 4.0 | 0.00 | 0.41 | 0.41 | 87 | 1009.1 |
| 20260507014604 | 57 | 346 | 2.0 | 4.0 | 0.00 | 0.41 | 0.41 | 87 | 1009.1 |
| 20260507014506 | 58 | 346 | 2.0 | 4.0 | 0.00 | 0.41 | 0.41 | 87 | 1009.1 |
| 20260507014401 | 58 | 336 | 2.0 | 4.0 | 0.00 | 0.41 | 0.41 | 87 | 1009.1 |
| 20260507014302 | 58 | 292 | 1.0 | 4.0 | 0.00 | 0.41 | 0.41 | 87 | 1009.1 |
| 20260507014202 | 58 | 292 | 0.0 | 4.0 | 0.00 | 0.41 | 0.41 | 87 | 1009.2 |
| 20260507014102 | 58 | 292 | 3.0 | 4.0 | 0.00 | 0.41 | 0.41 | 87 | 1009.2 |
| 20260507013903 | 58 | 46 | 1.0 | 4.0 | 0.00 | 0.41 | 0.41 | 86 | 1009.2 |
| 20260507013802 | 58 | 49 | 3.0 | 3.0 | 0.00 | 0.41 | 0.41 | 86 | 1009.2 |
| 20260507013505 | 58 | 51 | 3.0 | 3.0 | 0.00 | 0.41 | 0.41 | 87 | 1009.2 |
| 20260507013402 | 58 | 317 | 2.0 | 3.0 | 0.00 | 0.41 | 0.41 | 87 | 1009.2 |
| 20260507013303 | 58 | 319 | 1.0 | 3.0 | 0.00 | 0.41 | 0.41 | 87 | 1009.2 |
| 20260507013102 | 58 | 319 | 1.0 | 5.0 | 0.00 | 0.41 | 0.41 | 86 | 1009.2 |
| 20260507013006 | 58 | 323 | 1.0 | 9.0 | 0.00 | 0.41 | 0.41 | 86 | 1009.2 |
| 20260507012802 | 58 | 299 | 0.0 | 9.0 | 0.00 | 0.41 | 0.41 | 86 | 1009.2 |
| 20260507012702 | 58 | 299 | 1.0 | 9.0 | 0.00 | 0.41 | 0.41 | 86 | 1009.1 |
| 20260507012601 | 58 | 299 | 0.0 | 9.0 | 0.00 | 0.41 | 0.41 | 86 | 1009.2 |
| 20260507012506 | 58 | 299 | 2.0 | 9.0 | 0.00 | 0.41 | 0.41 | 86 | 1009.1 |
| 20260507012402 | 58 | 299 | 0.0 | 9.0 | 0.00 | 0.41 | 0.41 | 86 | 1009.1 |
| 20260507012305 | 58 | 299 | 0.0 | 9.0 | 0.00 | 0.41 | 0.41 | 86 | 1009.1 |
| 20260507012203 | 58 | 299 | 2.0 | 9.0 | 0.00 | 0.41 | 0.41 | 86 | 1009.1 |
| 20260507012103 | 58 | 344 | 4.0 | 9.0 | 0.00 | 0.41 | 0.41 | 86 | 1009.1 |
| 20260507012006 | 58 | 11 | 3.0 | 6.0 | 0.00 | 0.41 | 0.41 | 86 | 1009.1 |
| 20260507011903 | 58 | 196 | 2.0 | 4.0 | 0.00 | 0.41 | 0.41 | 86 | 1009.1 |
| 20260507011803 | 58 | 259 | 1.0 | 3.0 | 0.00 | 0.41 | 0.41 | 86 | 1009.1 |
| 20260507011701 | 58 | 259 | 1.0 | 5.0 | 0.00 | 0.41 | 0.41 | 87 | 1009.1 |
| 20260507011602 | 59 | 259 | 2.0 | 5.0 | 0.00 | 0.41 | 0.41 | 87 | 1009.0 |
| 20260507011505 | 59 | 259 | 1.0 | 7.0 | 0.00 | 0.41 | 0.41 | 87 | 1009.0 |
| 20260507011403 | 59 | 259 | 2.0 | 7.0 | 0.00 | 0.41 | 0.41 | 86 | 1009.0 |
| 20260507011302 | 59 | 260 | 1.0 | 7.0 | 0.00 | 0.41 | 0.41 | 86 | 1009.0 |
| 20260507011006 | 59 | 338 | 0.0 | 7.0 | 0.00 | 0.41 | 0.41 | 86 | 1009.0 |
| 20260507010801 | 59 | 338 | 3.0 | 7.0 | 0.00 | 0.41 | 0.41 | 86 | 1009.0 |
| 20260507010602 | 59 | 261 | 3.0 | 7.0 | 0.00 | 0.41 | 0.41 | 86 | 1008.9 |
| 20260507010506 | 59 | 258 | 6.0 | 7.0 | 0.00 | 0.41 | 0.41 | 86 | 1008.9 |
| 20260507010403 | 59 | 300 | 0.0 | 7.0 | 0.00 | 0.41 | 0.41 | 86 | 1008.8 |
| 20260507010301 | 59 | 300 | 0.0 | 7.0 | 0.00 | 0.41 | 0.41 | 86 | 1008.7 |
| 20260507010202 | 59 | 300 | 1.0 | 7.0 | 0.00 | 0.41 | 0.41 | 85 | 1008.6 |
| 20260507005902 | 59 | 334 | 2.0 | 5.0 | 0.00 | 0.41 | 0.41 | 86 | 1008.8 |
| 20260507005803 | 59 | 332 | 2.0 | 5.0 | 0.00 | 0.41 | 0.41 | 85 | 1008.7 |
| 20260507005702 | 59 | 328 | 2.0 | 5.0 | 0.00 | 0.41 | 0.41 | 86 | 1008.6 |
| 20260507005602 | 59 | 282 | 2.0 | 5.0 | 0.00 | 0.41 | 0.41 | 86 | 1008.8 |
| 20260507005506 | 59 | 287 | 3.0 | 8.0 | 0.00 | 0.41 | 0.41 | 86 | 1008.7 |
| 20260507005403 | 59 | 327 | 1.0 | 8.0 | 0.00 | 0.41 | 0.41 | 86 | 1008.8 |
| 20260507005305 | 59 | 333 | 2.0 | 8.0 | 0.00 | 0.41 | 0.41 | 86 | 1008.8 |
| 20260507005203 | 59 | 319 | 4.0 | 8.0 | 0.00 | 0.41 | 0.41 | 86 | 1008.9 |
| 20260507005102 | 59 | 268 | 1.0 | 8.0 | 0.00 | 0.41 | 0.41 | 86 | 1008.8 |
| 20260507005006 | 59 | 285 | 1.0 | 8.0 | 0.00 | 0.41 | 0.41 | 86 | 1008.7 |
| 20260507004903 | 59 | 285 | 6.0 | 8.0 | 0.00 | 0.41 | 0.41 | 87 | 1008.6 |
| 20260507004803 | 59 | 316 | 2.0 | 8.0 | 0.00 | 0.41 | 0.41 | 86 | 1008.5 |
| 20260507004702 | 59 | 315 | 2.0 | 8.0 | 0.00 | 0.41 | 0.41 | 86 | 1008.5 |
| 20260507004505 | 59 | 331 | 4.0 | 5.0 | 0.00 | 0.41 | 0.41 | 86 | 1008.5 |
| 20260507004402 | 59 | 239 | 1.0 | 5.0 | 0.00 | 0.41 | 0.41 | 87 | 1008.5 |
| 20260507004302 | 59 | 257 | 3.0 | 5.0 | 0.00 | 0.41 | 0.41 | 87 | 1008.5 |
| 20260507004202 | 59 | 63 | 1.0 | 5.0 | 0.00 | 0.41 | 0.41 | 87 | 1008.5 |
| 20260507004101 | 59 | 338 | 2.0 | 5.0 | 0.00 | 0.41 | 0.41 | 87 | 1008.5 |
| 20260507003902 | 59 | 296 | 2.0 | 4.0 | 0.00 | 0.41 | 0.41 | 87 | 1008.5 |
| 20260507003802 | 59 | 271 | 1.0 | 4.0 | 0.00 | 0.41 | 0.41 | 87 | 1008.4 |
| 20260507003704 | 59 | 271 | 3.0 | 4.0 | 0.00 | 0.41 | 0.41 | 87 | 1008.5 |
| 20260507003602 | 59 | 281 | 2.0 | 3.0 | 0.00 | 0.41 | 0.41 | 88 | 1008.5 |
| 20260507003505 | 59 | 281 | 1.0 | 3.0 | 0.00 | 0.41 | 0.41 | 88 | 1008.5 |
| 20260507003402 | 59 | 281 | 1.0 | 3.0 | 0.00 | 0.41 | 0.41 | 88 | 1008.5 |
| 20260507003302 | 59 | 281 | 2.0 | 3.0 | 0.00 | 0.41 | 0.41 | 88 | 1008.5 |
| 20260507003102 | 59 | 279 | 2.0 | 4.0 | 0.00 | 0.41 | 0.41 | 88 | 1008.5 |
| 20260507003006 | 59 | 275 | 0.0 | 4.0 | 0.00 | 0.41 | 0.41 | 88 | 1008.4 |
| 20260507002903 | 59 | 275 | 0.0 | 4.0 | 0.00 | 0.41 | 0.41 | 87 | 1008.4 |
| 20260507002802 | 59 | 275 | 0.0 | 4.0 | 0.00 | 0.41 | 0.41 | 87 | 1008.3 |
| 20260507002602 | 59 | 275 | 2.0 | 4.0 | 0.00 | 0.41 | 0.41 | 88 | 1008.3 |
| 20260507002402 | 59 | 275 | 0.0 | 4.0 | 0.00 | 0.41 | 0.41 | 88 | 1008.2 |
| 20260507002305 | 59 | 18 | 0.0 | 4.0 | 0.00 | 0.41 | 0.41 | 88 | 1008.2 |
| 20260507002203 | 59 | 18 | 1.0 | 4.0 | 0.00 | 0.41 | 0.41 | 88 | 1008.1 |
| 20260507002101 | 59 | 329 | 3.0 | 4.0 | 0.00 | 0.41 | 0.41 | 88 | 1008.1 |
| 20260507002005 | 59 | 329 | 0.0 | 4.0 | 0.00 | 0.41 | 0.41 | 88 | 1008.1 |
| 20260507001903 | 59 | 329 | 0.0 | 4.0 | 0.00 | 0.41 | 0.41 | 87 | 1008.1 |
| 20260507001802 | 59 | 329 | 0.0 | 4.0 | 0.00 | 0.41 | 0.41 | 87 | 1008.0 |
| 20260507001703 | 59 | 329 | 0.0 | 5.0 | 0.00 | 0.41 | 0.41 | 87 | 1008.0 |
| 20260507001601 | 59 | 329 | 0.0 | 5.0 | 0.00 | 0.41 | 0.41 | 87 | 1008.0 |
| 20260507001506 | 59 | 329 | 0.0 | 5.0 | 0.00 | 0.41 | 0.41 | 87 | 1008.0 |
| 20260507001402 | 59 | 329 | 0.0 | 5.0 | 0.00 | 0.41 | 0.41 | 87 | 1007.9 |
| 20260507001302 | 59 | 316 | 1.0 | 5.0 | 0.00 | 0.41 | 0.41 | 87 | 1007.9 |
| 20260507001203 | 59 | 315 | 1.0 | 5.0 | 0.00 | 0.41 | 0.41 | 88 | 1007.9 |
| 20260507001103 | 59 | 315 | 0.0 | 5.0 | 0.00 | 0.41 | 0.41 | 88 | 1007.9 |
| 20260507000902 | 59 | 315 | 1.0 | 5.0 | 0.00 | 0.41 | 0.41 | 88 | 1007.8 |
| 20260507000602 | 59 | 321 | 2.0 | 4.0 | 0.00 | 0.41 | 0.41 | 88 | 1007.8 |
| 20260507000402 | 59 | 321 | 1.0 | 5.0 | 0.00 | 0.41 | 0.41 | 88 | 1007.7 |
| 20260507000302 | 59 | 321 | 1.0 | 5.0 | 0.00 | 0.41 | 0.41 | 88 | 1007.7 |
| 20260507000205 | 59 | 324 | 1.0 | 5.0 | 0.00 | 0.41 | 0.41 | 88 | 1007.7 |
| 20260507000005 | 59 | 326 | 2.0 | 5.0 | 0.00 | 0.41 | 0.41 | 88 | 1007.5 |
| 20260506235902 | 59 | 315 | 2.0 | 5.0 | 0.00 | 0.41 | 0.41 | 88 | 1007.4 |
| 20260506235802 | 59 | 344 | 0.0 | 5.0 | 0.00 | 0.41 | 0.41 | 88 | 1007.4 |
| 20260506235602 | 59 | 350 | 2.0 | 5.0 | 0.00 | 0.41 | 0.41 | 88 | 1007.4 |
| 20260506235506 | 59 | 292 | 1.0 | 4.0 | 0.00 | 0.41 | 0.41 | 88 | 1007.4 |
| 20260506235403 | 59 | 249 | 1.0 | 4.0 | 0.00 | 0.41 | 0.41 | 88 | 1007.4 |
| 20260506235301 | 60 | 261 | 1.0 | 4.0 | 0.00 | 0.41 | 0.41 | 89 | 1007.3 |
| 20260506235202 | 60 | 261 | 1.0 | 4.0 | 0.00 | 0.41 | 0.41 | 89 | 1007.3 |
| 20260506235101 | 60 | 13 | 0.0 | 4.0 | 0.00 | 0.41 | 0.41 | 89 | 1007.4 |
| 20260506235006 | 60 | 13 | 2.0 | 4.0 | 0.00 | 0.41 | 0.41 | 89 | 1007.3 |
| 20260506234902 | 60 | 25 | 4.0 | 4.0 | 0.00 | 0.41 | 0.41 | 89 | 1007.3 |
| 20260506234802 | 60 | 336 | 1.0 | 4.0 | 0.00 | 0.41 | 0.41 | 89 | 1007.3 |
| 20260506234702 | 60 | 337 | 1.0 | 4.0 | 0.00 | 0.41 | 0.41 | 89 | 1007.3 |
| 20260506234402 | 60 | 298 | 1.0 | 4.0 | 0.00 | 0.41 | 0.41 | 89 | 1007.3 |
| 20260506234301 | 60 | 298 | 1.0 | 4.0 | 0.00 | 0.41 | 0.41 | 89 | 1007.2 |
| 20260506234201 | 60 | 298 | 1.0 | 4.0 | 0.00 | 0.41 | 0.41 | 89 | 1007.1 |
| 20260506234006 | 60 | 298 | 3.0 | 4.0 | 0.00 | 0.41 | 0.41 | 89 | 1007.0 |
| 20260506233902 | 60 | 5 | 3.0 | 4.0 | 0.00 | 0.41 | 0.41 | 89 | 1007.1 |
| 20260506233801 | 60 | 9 | 0.0 | 4.0 | 0.00 | 0.41 | 0.41 | 90 | 1007.0 |
| 20260506233702 | 60 | 9 | 1.0 | 4.0 | 0.00 | 0.41 | 0.41 | 89 | 1007.0 |
| 20260506233602 | 60 | 24 | 2.0 | 4.0 | 0.00 | 0.41 | 0.41 | 89 | 1007.0 |
| 20260506233505 | 60 | 30 | 3.0 | 4.0 | 0.00 | 0.41 | 0.41 | 89 | 1006.9 |
| 20260506233402 | 60 | 47 | 1.0 | 4.0 | 0.00 | 0.41 | 0.41 | 89 | 1006.9 |
| 20260506232901 | 60 | 322 | 0.0 | 6.0 | 0.00 | 0.41 | 0.41 | 90 | 1006.8 |
| 20260506232802 | 60 | 322 | 1.0 | 6.0 | 0.00 | 0.41 | 0.41 | 90 | 1006.8 |
| 20260506232603 | 60 | 324 | 1.0 | 6.0 | 0.00 | 0.41 | 0.41 | 90 | 1006.8 |
| 20260506232505 | 60 | 325 | 1.0 | 6.0 | 0.00 | 0.41 | 0.41 | 90 | 1006.8 |
| 20260506232201 | 60 | 331 | 2.0 | 6.0 | 0.00 | 0.41 | 0.41 | 90 | 1006.8 |
| 20260506232102 | 60 | 333 | 5.0 | 5.0 | 0.00 | 0.41 | 0.41 | 91 | 1006.8 |
| 20260506232005 | 60 | 279 | 2.0 | 5.0 | 0.00 | 0.41 | 0.41 | 91 | 1006.8 |
| 20260506231902 | 60 | 311 | 1.0 | 5.0 | 0.00 | 0.41 | 0.41 | 91 | 1006.8 |
| 20260506231802 | 60 | 40 | 3.0 | 3.0 | 0.00 | 0.41 | 0.41 | 92 | 1006.7 |
| 20260506231702 | 60 | 40 | 0.0 | 5.0 | 0.00 | 0.41 | 0.41 | 91 | 1006.7 |
| 20260506231601 | 60 | 40 | 1.0 | 5.0 | 0.00 | 0.41 | 0.41 | 92 | 1006.7 |
| 20260506231302 | 61 | 40 | 2.0 | 8.0 | 0.00 | 0.41 | 0.41 | 92 | 1006.8 |
| 20260506231202 | 61 | 40 | 2.0 | 8.0 | 0.00 | 0.41 | 0.41 | 92 | 1006.8 |
| 20260506231102 | 61 | 40 | 0.0 | 8.0 | 0.01 | 0.41 | 0.41 | 92 | 1006.8 |
| 20260506231005 | 61 | 40 | 1.0 | 8.0 | 0.01 | 0.41 | 0.41 | 92 | 1006.8 |
| 20260506230901 | 61 | 342 | 1.0 | 8.0 | 0.01 | 0.41 | 0.41 | 92 | 1006.7 |
| 20260506230802 | 61 | 342 | 1.0 | 8.0 | 0.01 | 0.41 | 0.41 | 92 | 1006.7 |
| 20260506230704 | 61 | 252 | 2.0 | 8.0 | 0.01 | 0.41 | 0.41 | 92 | 1006.7 |
| 20260506230603 | 61 | 247 | 2.0 | 8.0 | 0.01 | 0.41 | 0.41 | 92 | 1006.7 |
| 20260506230505 | 61 | 19 | 1.0 | 8.0 | 0.01 | 0.41 | 0.41 | 92 | 1006.7 |
| 20260506230302 | 61 | 325 | 3.0 | 5.0 | 0.01 | 0.41 | 0.41 | 93 | 1006.7 |
| 20260506230203 | 61 | 325 | 1.0 | 9.0 | 0.02 | 0.41 | 0.41 | 93 | 1006.7 |
| 20260506230005 | 61 | 329 | 3.0 | 9.0 | 0.04 | 0.41 | 0.41 | 93 | 1006.7 |
| 20260506225902 | 61 | 355 | 1.0 | 9.0 | 0.05 | 0.41 | 0.41 | 93 | 1006.7 |
| 20260506225802 | 61 | 303 | 4.0 | 9.0 | 0.05 | 0.41 | 0.41 | 93 | 1006.7 |
| 20260506225603 | 61 | 33 | 0.0 | 9.0 | 0.06 | 0.41 | 0.41 | 93 | 1006.7 |
| 20260506225506 | 61 | 321 | 2.0 | 9.0 | 0.08 | 0.41 | 0.41 | 94 | 1006.7 |
| 20260506225402 | 61 | 346 | 1.0 | 9.0 | 0.08 | 0.41 | 0.41 | 94 | 1006.7 |
| 20260506225301 | 62 | 258 | 3.0 | 6.0 | 0.08 | 0.41 | 0.41 | 94 | 1006.7 |
| 20260506225005 | 62 | 257 | 1.0 | 6.0 | 0.10 | 0.41 | 0.41 | 95 | 1006.7 |
| 20260506224902 | 62 | 330 | 1.0 | 6.0 | 0.10 | 0.41 | 0.41 | 95 | 1006.7 |
| 20260506224702 | 62 | 336 | 1.0 | 6.0 | 0.10 | 0.41 | 0.41 | 95 | 1006.6 |
| 20260506224507 | 62 | 355 | 4.0 | 6.0 | 0.10 | 0.41 | 0.41 | 95 | 1006.6 |
| 20260506224401 | 62 | 360 | 1.0 | 6.0 | 0.10 | 0.41 | 0.41 | 95 | 1006.5 |
| 20260506224201 | 62 | 360 | 1.0 | 6.0 | 0.10 | 0.41 | 0.41 | 95 | 1006.6 |
| 20260506224103 | 62 | 355 | 1.0 | 6.0 | 0.10 | 0.41 | 0.41 | 95 | 1006.6 |
| 20260506224006 | 62 | 355 | 2.0 | 6.0 | 0.10 | 0.41 | 0.41 | 95 | 1006.5 |
| 20260506223802 | 62 | 15 | 4.0 | 6.0 | 0.10 | 0.41 | 0.41 | 95 | 1006.5 |
| 20260506223601 | 62 | 323 | 2.0 | 5.0 | 0.10 | 0.41 | 0.41 | 95 | 1006.5 |
| 20260506223505 | 63 | 322 | 3.0 | 6.0 | 0.10 | 0.41 | 0.41 | 95 | 1006.4 |
| 20260506223402 | 63 | 322 | 1.0 | 6.0 | 0.10 | 0.41 | 0.41 | 95 | 1006.4 |
| 20260506223302 | 63 | 308 | 2.0 | 6.0 | 0.10 | 0.41 | 0.41 | 95 | 1006.4 |
| 20260506223202 | 63 | 58 | 2.0 | 6.0 | 0.10 | 0.41 | 0.41 | 95 | 1006.4 |
| 20260506223102 | 63 | 58 | 2.0 | 6.0 | 0.10 | 0.41 | 0.41 | 95 | 1006.3 |
| 20260506223005 | 63 | 329 | 2.0 | 6.0 | 0.10 | 0.41 | 0.41 | 95 | 1006.4 |
| 20260506222801 | 63 | 318 | 4.0 | 6.0 | 0.10 | 0.41 | 0.41 | 95 | 1006.4 |
| 20260506222603 | 64 | 21 | 2.0 | 6.0 | 0.10 | 0.41 | 0.41 | 94 | 1006.4 |
| 20260506222505 | 64 | 330 | 2.0 | 3.0 | 0.10 | 0.41 | 0.41 | 94 | 1006.4 |
| 20260506222402 | 64 | 330 | 2.0 | 3.0 | 0.10 | 0.41 | 0.41 | 94 | 1006.4 |
| 20260506222305 | 64 | 192 | 3.0 | 3.0 | 0.10 | 0.41 | 0.41 | 94 | 1006.3 |
| 20260506222103 | 64 | 192 | 0.0 | 1.0 | 0.10 | 0.41 | 0.41 | 94 | 1006.2 |
| 20260506222006 | 64 | 192 | 0.0 | 1.0 | 0.10 | 0.41 | 0.41 | 94 | 1006.2 |
| 20260506221902 | 64 | 192 | 0.0 | 1.0 | 0.10 | 0.41 | 0.41 | 94 | 1006.2 |
| 20260506221802 | 64 | 192 | 0.0 | 1.0 | 0.10 | 0.41 | 0.41 | 94 | 1006.2 |
| 20260506221702 | 64 | 192 | 0.0 | 1.0 | 0.10 | 0.41 | 0.41 | 95 | 1006.1 |
| 20260506221602 | 64 | 192 | 0.0 | 1.0 | 0.10 | 0.41 | 0.41 | 95 | 1006.1 |
| 20260506221505 | 64 | 192 | 0.0 | 1.0 | 0.10 | 0.41 | 0.41 | 95 | 1006.2 |
| 20260506221202 | 64 | 192 | 0.0 | 0.0 | 0.10 | 0.41 | 0.41 | 95 | 1006.2 |
| 20260506221102 | 64 | 192 | 0.0 | 1.0 | 0.09 | 0.40 | 0.40 | 95 | 1006.2 |
| 20260506221005 | 64 | 192 | 0.0 | 1.0 | 0.09 | 0.40 | 0.40 | 95 | 1006.1 |
| 20260506220903 | 64 | 192 | 0.0 | 2.0 | 0.09 | 0.40 | 0.40 | 95 | 1006.1 |
| 20260506220802 | 64 | 192 | 0.0 | 2.0 | 0.09 | 0.40 | 0.40 | 95 | 1006.2 |
| 20260506220506 | 64 | 192 | 0.0 | 2.0 | 0.09 | 0.40 | 0.40 | 95 | 1006.0 |
| 20260506220401 | 64 | 192 | 0.0 | 2.0 | 0.09 | 0.40 | 0.40 | 95 | 1006.0 |
| 20260506220303 | 64 | 192 | 0.0 | 2.0 | 0.09 | 0.40 | 0.40 | 95 | 1006.0 |
| 20260506220202 | 64 | 192 | 0.0 | 2.0 | 0.08 | 0.39 | 0.39 | 95 | 1006.0 |
| 20260506220005 | 64 | 192 | 1.0 | 2.0 | 0.06 | 0.37 | 0.37 | 95 | 1006.0 |
| 20260506215901 | 64 | 192 | 1.0 | 2.0 | 0.05 | 0.36 | 0.36 | 95 | 1005.9 |
| 20260506215801 | 65 | 192 | 1.0 | 2.0 | 0.04 | 0.35 | 0.35 | 95 | 1005.9 |
| 20260506215703 | 65 | 192 | 2.0 | 3.0 | 0.04 | 0.35 | 0.35 | 95 | 1005.9 |
| 20260506215600 | 65 | 192 | 2.0 | 3.0 | 0.02 | 0.33 | 0.33 | 94 | 1006.0 |
| 20260506215505 | 65 | 192 | 2.0 | 3.0 | 0.02 | 0.33 | 0.33 | 94 | 1006.0 |
| 20260506215401 | 65 | 192 | 1.0 | 3.0 | 0.02 | 0.33 | 0.33 | 94 | 1006.0 |
| 20260506215301 | 65 | 192 | 0.0 | 3.0 | 0.02 | 0.33 | 0.33 | 94 | 1005.8 |
| 20260506215202 | 65 | 192 | 0.0 | 3.0 | 0.02 | 0.33 | 0.33 | 94 | 1005.7 |
| 20260506215101 | 65 | 192 | 0.0 | 3.0 | 0.00 | 0.31 | 0.31 | 94 | 1005.8 |
| 20260506215006 | 65 | 192 | 1.0 | 3.0 | 0.00 | 0.31 | 0.31 | 94 | 1005.7 |
| 20260506214901 | 65 | 192 | 0.0 | 3.0 | 0.00 | 0.31 | 0.31 | 94 | 1005.7 |
| 20260506214701 | 65 | 192 | 3.0 | 3.0 | 0.00 | 0.31 | 0.31 | 94 | 1005.7 |
| 20260506214601 | 65 | 192 | 0.0 | 2.0 | 0.00 | 0.31 | 0.31 | 94 | 1005.7 |
| 20260506214505 | 65 | 192 | 0.0 | 2.0 | 0.00 | 0.31 | 0.31 | 94 | 1005.6 |
| 20260506214401 | 65 | 192 | 0.0 | 2.0 | 0.00 | 0.31 | 0.31 | 94 | 1005.5 |
| 20260506214301 | 65 | 192 | 0.0 | 2.0 | 0.00 | 0.31 | 0.31 | 94 | 1005.5 |
| 20260506214201 | 65 | 192 | 0.0 | 2.0 | 0.00 | 0.31 | 0.31 | 94 | 1005.5 |
| 20260506214101 | 65 | 192 | 0.0 | 2.0 | 0.00 | 0.31 | 0.31 | 94 | 1005.5 |
| 20260506214005 | 65 | 192 | 0.0 | 2.0 | 0.00 | 0.31 | 0.31 | 94 | 1005.5 |
| 20260506213900 | 65 | 192 | 0.0 | 2.0 | 0.00 | 0.31 | 0.31 | 94 | 1005.5 |
| 20260506213802 | 65 | 192 | 0.0 | 2.0 | 0.00 | 0.31 | 0.31 | 94 | 1005.5 |
| 20260506213600 | 66 | 192 | 0.0 | 2.0 | 0.00 | 0.31 | 0.31 | 94 | 1005.5 |
| 20260506213505 | 66 | 192 | 0.0 | 2.0 | 0.00 | 0.31 | 0.31 | 94 | 1005.4 |
| 20260506213401 | 66 | 192 | 2.0 | 2.0 | 0.00 | 0.31 | 0.31 | 94 | 1005.4 |
| 20260506213301 | 66 | 192 | 0.0 | 2.0 | 0.00 | 0.31 | 0.31 | 94 | 1005.4 |
| 20260506213101 | 66 | 192 | 0.0 | 2.0 | 0.00 | 0.31 | 0.31 | 94 | 1005.4 |
| 20260506213005 | 66 | 192 | 0.0 | 2.0 | 0.00 | 0.31 | 0.31 | 94 | 1005.4 |
| 20260506212901 | 66 | 192 | 1.0 | 3.0 | 0.00 | 0.31 | 0.31 | 94 | 1005.4 |
| 20260506212700 | 66 | 192 | 0.0 | 3.0 | 0.00 | 0.31 | 0.31 | 94 | 1005.3 |
| 20260506212602 | 66 | 192 | 0.0 | 3.0 | 0.00 | 0.31 | 0.31 | 94 | 1005.3 |
| 20260506212506 | 66 | 192 | 0.0 | 3.0 | 0.00 | 0.31 | 0.31 | 94 | 1005.3 |
| 20260506212402 | 66 | 192 | 0.0 | 3.0 | 0.00 | 0.31 | 0.31 | 94 | 1005.3 |
| 20260506212301 | 66 | 192 | 0.0 | 3.0 | 0.00 | 0.31 | 0.31 | 94 | 1005.3 |
| 20260506212201 | 66 | 192 | 0.0 | 3.0 | 0.00 | 0.31 | 0.31 | 94 | 1005.2 |
| 20260506212102 | 66 | 192 | 0.0 | 3.0 | 0.00 | 0.31 | 0.31 | 94 | 1005.2 |
| 20260506212005 | 66 | 192 | 2.0 | 3.0 | 0.00 | 0.31 | 0.31 | 94 | 1005.2 |
| 20260506211801 | 66 | 192 | 1.0 | 3.0 | 0.00 | 0.31 | 0.31 | 94 | 1005.2 |
| 20260506211702 | 66 | 192 | 3.0 | 3.0 | 0.00 | 0.31 | 0.31 | 94 | 1005.2 |
| 20260506211601 | 66 | 190 | 1.0 | 2.0 | 0.00 | 0.31 | 0.31 | 94 | 1005.2 |
| 20260506211505 | 66 | 187 | 0.0 | 0.0 | 0.00 | 0.31 | 0.31 | 94 | 1005.2 |
| 20260506211400 | 66 | 187 | 0.0 | 0.0 | 0.00 | 0.31 | 0.31 | 94 | 1005.2 |
| 20260506211300 | 66 | 187 | 0.0 | 0.0 | 0.00 | 0.31 | 0.31 | 94 | 1005.1 |
| 20260506211200 | 66 | 187 | 0.0 | 0.0 | 0.00 | 0.31 | 0.31 | 94 | 1005.1 |
| 20260506211100 | 66 | 187 | 0.0 | 0.0 | 0.00 | 0.31 | 0.31 | 94 | 1005.1 |
| 20260506211005 | 66 | 187 | 0.0 | 0.0 | 0.00 | 0.31 | 0.31 | 95 | 1005.2 |
| 20260506210902 | 66 | 187 | 0.0 | 0.0 | 0.00 | 0.31 | 0.31 | 95 | 1005.2 |
| 20260506210600 | 66 | 187 | 0.0 | 0.0 | 0.00 | 0.31 | 0.31 | 94 | 1005.2 |
| 20260506210507 | 66 | 187 | 0.0 | 0.0 | 0.00 | 0.31 | 0.31 | 94 | 1005.2 |
| 20260506210401 | 66 | 187 | 0.0 | 0.0 | 0.00 | 0.31 | 0.31 | 95 | 1005.2 |
| 20260506210301 | 66 | 187 | 0.0 | 0.0 | 0.00 | 0.31 | 0.31 | 95 | 1005.3 |
| 20260506210201 | 66 | 187 | 0.0 | 0.0 | 0.00 | 0.31 | 0.31 | 94 | 1005.2 |
| 20260506210101 | 66 | 187 | 0.0 | 0.0 | 0.00 | 0.31 | 0.31 | 94 | 1005.3 |
| 20260506210005 | 66 | 187 | 0.0 | 0.0 | 0.00 | 0.31 | 0.31 | 94 | 1005.3 |
| 20260506205901 | 66 | 187 | 0.0 | 0.0 | 0.00 | 0.31 | 0.31 | 94 | 1005.3 |
| 20260506205800 | 66 | 187 | 0.0 | 0.0 | 0.00 | 0.31 | 0.31 | 94 | 1005.2 |
| 20260506205600 | 66 | 187 | 0.0 | 0.0 | 0.00 | 0.31 | 0.31 | 94 | 1005.2 |
| 20260506205505 | 66 | 187 | 0.0 | 0.0 | 0.00 | 0.31 | 0.31 | 94 | 1005.2 |
| 20260506205402 | 66 | 187 | 0.0 | 0.0 | 0.00 | 0.31 | 0.31 | 94 | 1005.2 |
| 20260506205305 | 66 | 187 | 0.0 | 0.0 | 0.00 | 0.31 | 0.31 | 94 | 1005.2 |
| 20260506205201 | 66 | 187 | 0.0 | 0.0 | 0.00 | 0.31 | 0.31 | 94 | 1005.2 |
| 20260506205102 | 66 | 187 | 0.0 | 1.0 | 0.00 | 0.31 | 0.31 | 94 | 1005.3 |
| 20260506205006 | 66 | 187 | 0.0 | 2.0 | 0.00 | 0.31 | 0.31 | 94 | 1005.3 |
| 20260506204902 | 66 | 187 | 0.0 | 2.0 | 0.00 | 0.31 | 0.31 | 94 | 1005.3 |
| 20260506204801 | 66 | 187 | 0.0 | 2.0 | 0.00 | 0.31 | 0.31 | 94 | 1005.3 |
| 20260506204401 | 66 | 187 | 0.0 | 2.0 | 0.00 | 0.31 | 0.31 | 94 | 1005.3 |
| 20260506204302 | 66 | 187 | 0.0 | 2.0 | 0.00 | 0.31 | 0.31 | 94 | 1005.3 |
| 20260506204200 | 66 | 187 | 0.0 | 2.0 | 0.00 | 0.31 | 0.31 | 94 | 1005.3 |
| 20260506204101 | 66 | 187 | 1.0 | 2.0 | 0.00 | 0.31 | 0.31 | 94 | 1005.3 |
| 20260506204005 | 66 | 187 | 0.0 | 1.0 | 0.00 | 0.31 | 0.31 | 94 | 1005.2 |
| 20260506203900 | 66 | 187 | 0.0 | 1.0 | 0.00 | 0.31 | 0.31 | 94 | 1005.3 |
| 20260506203801 | 66 | 187 | 1.0 | 1.0 | 0.00 | 0.31 | 0.31 | 94 | 1005.3 |
| 20260506203702 | 66 | 187 | 0.0 | 1.0 | 0.00 | 0.31 | 0.31 | 94 | 1005.2 |
| 20260506203601 | 66 | 187 | 0.0 | 2.0 | 0.00 | 0.31 | 0.31 | 94 | 1005.2 |
| 20260506203505 | 66 | 187 | 0.0 | 3.0 | 0.00 | 0.31 | 0.31 | 94 | 1005.2 |
| 20260506203400 | 66 | 187 | 0.0 | 3.0 | 0.00 | 0.31 | 0.31 | 94 | 1005.2 |
| 20260506203301 | 66 | 187 | 0.0 | 3.0 | 0.00 | 0.31 | 0.31 | 94 | 1005.2 |
| 20260506203201 | 66 | 187 | 0.0 | 3.0 | 0.00 | 0.31 | 0.31 | 94 | 1005.2 |
| 20260506203101 | 66 | 187 | 0.0 | 3.0 | 0.00 | 0.31 | 0.31 | 94 | 1005.2 |
| 20260506203005 | 66 | 187 | 0.0 | 3.0 | 0.00 | 0.31 | 0.31 | 94 | 1005.2 |
| 20260506202901 | 66 | 187 | 0.0 | 3.0 | 0.00 | 0.31 | 0.31 | 94 | 1005.2 |
| 20260506202801 | 66 | 187 | 0.0 | 3.0 | 0.00 | 0.31 | 0.31 | 94 | 1005.2 |
| 20260506202702 | 66 | 187 | 0.0 | 3.0 | 0.00 | 0.31 | 0.31 | 94 | 1005.1 |
| 20260506202601 | 66 | 187 | 0.0 | 3.0 | 0.00 | 0.31 | 0.31 | 94 | 1005.2 |
| 20260506202505 | 66 | 187 | 0.0 | 3.0 | 0.00 | 0.31 | 0.31 | 94 | 1005.2 |
| 20260506202401 | 66 | 187 | 0.0 | 3.0 | 0.00 | 0.31 | 0.31 | 94 | 1005.2 |
| 20260506202301 | 66 | 187 | 0.0 | 3.0 | 0.00 | 0.31 | 0.31 | 94 | 1005.2 |
| 20260506202201 | 66 | 187 | 0.0 | 4.0 | 0.00 | 0.31 | 0.31 | 94 | 1005.2 |
| 20260506202101 | 66 | 187 | 1.0 | 4.0 | 0.00 | 0.31 | 0.31 | 94 | 1005.2 |
| 20260506202005 | 66 | 187 | 1.0 | 4.0 | 0.00 | 0.31 | 0.31 | 94 | 1005.2 |
| 20260506201901 | 66 | 187 | 1.0 | 4.0 | 0.00 | 0.31 | 0.31 | 94 | 1005.2 |
| 20260506201801 | 66 | 187 | 0.0 | 4.0 | 0.00 | 0.31 | 0.31 | 94 | 1005.2 |
| 20260506201701 | 66 | 187 | 2.0 | 4.0 | 0.00 | 0.31 | 0.31 | 93 | 1005.2 |
| 20260506201602 | 66 | 187 | 1.0 | 4.0 | 0.00 | 0.31 | 0.31 | 94 | 1005.2 |
| 20260506201505 | 66 | 187 | 0.0 | 4.0 | 0.00 | 0.31 | 0.31 | 94 | 1005.2 |
| 20260506201401 | 66 | 187 | 1.0 | 4.0 | 0.00 | 0.31 | 0.31 | 94 | 1005.1 |
| 20260506201301 | 66 | 187 | 3.0 | 4.0 | 0.00 | 0.31 | 0.31 | 94 | 1005.1 |
| 20260506201202 | 66 | 188 | 0.0 | 4.0 | 0.00 | 0.31 | 0.31 | 94 | 1005.1 |
| 20260506201100 | 66 | 188 | 0.0 | 4.0 | 0.00 | 0.31 | 0.31 | 94 | 1005.1 |
| 20260506201005 | 66 | 188 | 0.0 | 4.0 | 0.00 | 0.31 | 0.31 | 94 | 1005.1 |
| 20260506200901 | 66 | 188 | 2.0 | 4.0 | 0.00 | 0.31 | 0.31 | 94 | 1005.1 |
| 20260506200801 | 66 | 187 | 2.0 | 4.0 | 0.00 | 0.31 | 0.31 | 94 | 1005.1 |
| 20260506200700 | 66 | 187 | 0.0 | 4.0 | 0.00 | 0.31 | 0.31 | 94 | 1005.1 |
| 20260506200601 | 66 | 187 | 1.0 | 4.0 | 0.00 | 0.31 | 0.31 | 94 | 1005.1 |
| 20260506200505 | 66 | 216 | 3.0 | 4.0 | 0.00 | 0.31 | 0.31 | 94 | 1005.1 |
| 20260506200401 | 66 | 240 | 0.0 | 4.0 | 0.00 | 0.31 | 0.31 | 94 | 1005.1 |
| 20260506200202 | 66 | 240 | 1.0 | 4.0 | 0.00 | 0.31 | 0.31 | 94 | 1005.1 |
| 20260506200101 | 66 | 239 | 3.0 | 4.0 | 0.00 | 0.31 | 0.31 | 95 | 1005.2 |
| 20260506200007 | 66 | 239 | 1.0 | 4.0 | 0.00 | 0.31 | 0.31 | 95 | 1005.2 |
| 20260506195901 | 66 | 239 | 4.0 | 4.0 | 0.00 | 0.31 | 0.31 | 95 | 1005.1 |
| 20260506195803 | 66 | 238 | 0.0 | 3.0 | 0.00 | 0.31 | 0.31 | 95 | 1005.1 |
| 20260506195602 | 66 | 238 | 1.0 | 3.0 | 0.00 | 0.31 | 0.31 | 95 | 1005.2 |
| 20260506195505 | 65 | 238 | 1.0 | 3.0 | 0.00 | 0.31 | 0.31 | 95 | 1005.2 |
| 20260506195401 | 65 | 238 | 0.0 | 3.0 | 0.00 | 0.31 | 0.31 | 95 | 1005.3 |
| 20260506195305 | 65 | 238 | 0.0 | 3.0 | 0.00 | 0.31 | 0.31 | 95 | 1005.3 |
| 20260506195201 | 65 | 238 | 0.0 | 3.0 | 0.00 | 0.31 | 0.31 | 95 | 1005.2 |
| 20260506194803 | 65 | 238 | 0.0 | 4.0 | 0.00 | 0.31 | 0.31 | 95 | 1005.3 |
| 20260506194702 | 65 | 238 | 0.0 | 4.0 | 0.00 | 0.31 | 0.31 | 95 | 1005.3 |
| 20260506194601 | 65 | 238 | 0.0 | 4.0 | 0.00 | 0.31 | 0.31 | 95 | 1005.3 |
| 20260506194505 | 65 | 238 | 0.0 | 4.0 | 0.00 | 0.31 | 0.31 | 95 | 1005.3 |
| 20260506194403 | 64 | 238 | 0.0 | 4.0 | 0.00 | 0.31 | 0.31 | 95 | 1005.4 |
| 20260506194301 | 64 | 238 | 0.0 | 4.0 | 0.00 | 0.31 | 0.31 | 95 | 1005.4 |
| 20260506194203 | 64 | 238 | 1.0 | 4.0 | 0.00 | 0.31 | 0.31 | 95 | 1005.4 |
| 20260506194102 | 64 | 238 | 1.0 | 4.0 | 0.00 | 0.31 | 0.31 | 95 | 1005.4 |
| 20260506194005 | 64 | 238 | 0.0 | 4.0 | 0.00 | 0.31 | 0.31 | 95 | 1005.4 |
| 20260506193903 | 64 | 238 | 2.0 | 4.0 | 0.00 | 0.31 | 0.31 | 95 | 1005.4 |
| 20260506193802 | 64 | 237 | 0.0 | 3.0 | 0.00 | 0.31 | 0.31 | 95 | 1005.4 |
| 20260506193702 | 64 | 237 | 0.0 | 3.0 | 0.00 | 0.31 | 0.31 | 95 | 1005.4 |
| 20260506193601 | 64 | 237 | 0.0 | 3.0 | 0.00 | 0.31 | 0.31 | 95 | 1005.4 |
| 20260506193505 | 64 | 237 | 0.0 | 3.0 | 0.00 | 0.31 | 0.31 | 95 | 1005.4 |
| 20260506193403 | 64 | 237 | 0.0 | 3.0 | 0.00 | 0.31 | 0.31 | 95 | 1005.4 |
| 20260506193302 | 64 | 237 | 1.0 | 3.0 | 0.00 | 0.31 | 0.31 | 95 | 1005.5 |
| 20260506193101 | 64 | 237 | 0.0 | 3.0 | 0.00 | 0.31 | 0.31 | 95 | 1005.5 |
| 20260506193005 | 64 | 237 | 1.0 | 3.0 | 0.00 | 0.31 | 0.31 | 95 | 1005.5 |
| 20260506192902 | 64 | 237 | 2.0 | 3.0 | 0.00 | 0.31 | 0.31 | 95 | 1005.5 |
| 20260506192801 | 64 | 237 | 0.0 | 2.0 | 0.00 | 0.31 | 0.31 | 95 | 1005.5 |
| 20260506192601 | 64 | 237 | 0.0 | 2.0 | 0.00 | 0.31 | 0.31 | 94 | 1005.6 |
| 20260506192505 | 64 | 237 | 1.0 | 2.0 | 0.00 | 0.31 | 0.31 | 94 | 1005.5 |
| 20260506192202 | 64 | 237 | 0.0 | 2.0 | 0.00 | 0.31 | 0.31 | 95 | 1005.5 |
| 20260506192101 | 64 | 237 | 0.0 | 2.0 | 0.00 | 0.31 | 0.31 | 95 | 1005.5 |
| 20260506192005 | 64 | 237 | 0.0 | 2.0 | 0.00 | 0.31 | 0.31 | 95 | 1005.5 |
| 20260506191902 | 64 | 237 | 0.0 | 2.0 | 0.00 | 0.31 | 0.31 | 95 | 1005.5 |
| 20260506191802 | 64 | 237 | 0.0 | 2.0 | 0.00 | 0.31 | 0.31 | 95 | 1005.6 |
| 20260506191702 | 64 | 237 | 0.0 | 2.0 | 0.00 | 0.31 | 0.31 | 95 | 1005.6 |
| 20260506191603 | 64 | 237 | 1.0 | 2.0 | 0.00 | 0.31 | 0.31 | 95 | 1005.6 |
| 20260506191505 | 64 | 237 | 1.0 | 3.0 | 0.00 | 0.31 | 0.31 | 95 | 1005.6 |
| 20260506191302 | 64 | 237 | 1.0 | 3.0 | 0.00 | 0.31 | 0.31 | 95 | 1005.5 |
| 20260506191202 | 64 | 237 | 1.0 | 3.0 | 0.00 | 0.31 | 0.31 | 95 | 1005.5 |
| 20260506191102 | 64 | 237 | 0.0 | 3.0 | 0.00 | 0.31 | 0.31 | 95 | 1005.6 |
| 20260506190801 | 64 | 237 | 0.0 | 3.0 | 0.00 | 0.31 | 0.31 | 95 | 1005.7 |
| 20260506190603 | 64 | 237 | 0.0 | 3.0 | 0.00 | 0.31 | 0.31 | 95 | 1005.7 |
| 20260506190505 | 64 | 237 | 2.0 | 4.0 | 0.00 | 0.31 | 0.31 | 95 | 1005.6 |
| 20260506190402 | 64 | 237 | 1.0 | 4.0 | 0.00 | 0.31 | 0.31 | 94 | 1005.6 |
| 20260506190302 | 64 | 237 | 1.0 | 4.0 | 0.00 | 0.31 | 0.31 | 94 | 1005.6 |
| 20260506190202 | 64 | 237 | 0.0 | 4.0 | 0.00 | 0.31 | 0.31 | 94 | 1005.6 |
| 20260506190007 | 64 | 237 | 2.0 | 4.0 | 0.00 | 0.31 | 0.31 | 94 | 1005.6 |
| 20260506185902 | 64 | 237 | 0.0 | 4.0 | 0.00 | 0.31 | 0.31 | 94 | 1005.6 |
| 20260506185801 | 64 | 237 | 1.0 | 4.0 | 0.00 | 0.31 | 0.31 | 94 | 1005.6 |
| 20260506185602 | 64 | 238 | 3.0 | 3.0 | 0.00 | 0.31 | 0.31 | 94 | 1005.7 |
| 20260506185506 | 64 | 236 | 0.0 | 2.0 | 0.00 | 0.31 | 0.31 | 93 | 1005.7 |
| 20260506185306 | 64 | 236 | 1.0 | 2.0 | 0.00 | 0.31 | 0.31 | 93 | 1005.7 |
| 20260506185203 | 64 | 236 | 1.0 | 3.0 | 0.00 | 0.31 | 0.31 | 93 | 1005.7 |
| 20260506185101 | 64 | 236 | 0.0 | 4.0 | 0.00 | 0.31 | 0.31 | 93 | 1005.7 |
| 20260506185005 | 64 | 236 | 0.0 | 4.0 | 0.00 | 0.31 | 0.31 | 93 | 1005.6 |
| 20260506184902 | 64 | 236 | 0.0 | 4.0 | 0.00 | 0.31 | 0.31 | 92 | 1005.7 |
| 20260506184802 | 64 | 236 | 2.0 | 4.0 | 0.00 | 0.31 | 0.31 | 92 | 1005.7 |
| 20260506184602 | 64 | 236 | 0.0 | 4.0 | 0.00 | 0.31 | 0.31 | 93 | 1005.7 |
| 20260506184506 | 64 | 236 | 2.0 | 4.0 | 0.00 | 0.31 | 0.31 | 93 | 1005.7 |
| 20260506184401 | 64 | 236 | 2.0 | 4.0 | 0.00 | 0.31 | 0.31 | 93 | 1005.8 |
| 20260506184302 | 64 | 236 | 2.0 | 4.0 | 0.00 | 0.31 | 0.31 | 92 | 1005.8 |
| 20260506184202 | 64 | 198 | 0.0 | 0.0 | 0.00 | 0.31 | 0.31 | 92 | 1005.8 |
| 20260506184101 | 64 | 180 | 0.0 | 0.0 | 0.01 | 0.31 | 0.31 | 92 | 1005.8 |
| 20260506183903 | 63 | 180 | 0.0 | 0.0 | 0.01 | 0.31 | 0.31 | 92 | 1005.8 |
| 20260506183603 | 63 | 180 | 0.0 | 0.0 | 0.01 | 0.31 | 0.31 | 92 | 1005.9 |
| 20260506183505 | 63 | 180 | 0.0 | 0.0 | 0.01 | 0.31 | 0.31 | 92 | 1005.9 |
| 20260506183402 | 63 | 180 | 0.0 | 0.0 | 0.01 | 0.31 | 0.31 | 92 | 1005.9 |
| 20260506183202 | 63 | 180 | 0.0 | 0.0 | 0.01 | 0.31 | 0.31 | 91 | 1005.9 |
| 20260506183101 | 63 | 178 | 0.0 | 0.0 | 0.01 | 0.31 | 0.31 | 91 | 1005.9 |
| 20260506183007 | 63 | 178 | 0.0 | 0.0 | 0.01 | 0.31 | 0.31 | 91 | 1005.9 |
| 20260506182702 | 63 | 178 | 0.0 | 0.0 | 0.01 | 0.31 | 0.31 | 91 | 1005.9 |
| 20260506182601 | 63 | 178 | 0.0 | 0.0 | 0.01 | 0.31 | 0.31 | 92 | 1005.9 |
| 20260506182506 | 62 | 178 | 0.0 | 0.0 | 0.01 | 0.31 | 0.31 | 92 | 1005.9 |
| 20260506182402 | 62 | 178 | 0.0 | 0.0 | 0.01 | 0.31 | 0.31 | 91 | 1005.9 |
| 20260506182306 | 62 | 178 | 0.0 | 0.0 | 0.01 | 0.31 | 0.31 | 91 | 1005.8 |
| 20260506182203 | 62 | 178 | 0.0 | 0.0 | 0.01 | 0.31 | 0.31 | 91 | 1005.9 |
| 20260506182101 | 62 | 153 | 0.0 | 0.0 | 0.01 | 0.31 | 0.31 | 91 | 1005.9 |
| 20260506182006 | 62 | 153 | 0.0 | 0.0 | 0.01 | 0.31 | 0.31 | 91 | 1005.8 |
| 20260506181901 | 62 | 153 | 0.0 | 0.0 | 0.01 | 0.31 | 0.31 | 91 | 1005.9 |
| 20260506181802 | 62 | 153 | 0.0 | 0.0 | 0.01 | 0.31 | 0.31 | 91 | 1005.8 |
| 20260506181703 | 62 | 153 | 0.0 | 0.0 | 0.01 | 0.31 | 0.31 | 91 | 1005.9 |
| 20260506181602 | 62 | 153 | 0.0 | 0.0 | 0.01 | 0.31 | 0.31 | 91 | 1005.9 |
| 20260506181505 | 62 | 153 | 0.0 | 0.0 | 0.01 | 0.31 | 0.31 | 91 | 1006.0 |
| 20260506181402 | 61 | 153 | 0.0 | 0.0 | 0.01 | 0.31 | 0.31 | 91 | 1006.0 |
| 20260506181301 | 61 | 153 | 0.0 | 0.0 | 0.01 | 0.31 | 0.31 | 91 | 1006.0 |
| 20260506181202 | 61 | 153 | 0.0 | 0.0 | 0.01 | 0.31 | 0.31 | 91 | 1006.0 |
| 20260506181103 | 61 | 153 | 0.0 | 0.0 | 0.02 | 0.31 | 0.31 | 92 | 1006.0 |
| 20260506181005 | 61 | 153 | 0.0 | 0.0 | 0.02 | 0.31 | 0.31 | 92 | 1006.0 |
| 20260506180902 | 61 | 153 | 0.0 | 0.0 | 0.02 | 0.31 | 0.31 | 92 | 1006.0 |
| 20260506180701 | 61 | 153 | 0.0 | 0.0 | 0.02 | 0.31 | 0.31 | 92 | 1006.1 |
| 20260506180601 | 61 | 153 | 0.0 | 0.0 | 0.02 | 0.31 | 0.31 | 92 | 1006.1 |
| 20260506180403 | 61 | 153 | 0.0 | 0.0 | 0.02 | 0.31 | 0.31 | 92 | 1006.1 |
| 20260506180202 | 61 | 153 | 0.0 | 0.0 | 0.02 | 0.31 | 0.31 | 92 | 1006.1 |
| 20260506180006 | 61 | 153 | 0.0 | 1.0 | 0.02 | 0.31 | 0.31 | 92 | 1006.1 |
| 20260506175801 | 61 | 153 | 0.0 | 2.0 | 0.02 | 0.31 | 0.31 | 92 | 1006.1 |
| 20260506175701 | 61 | 153 | 0.0 | 2.0 | 0.02 | 0.31 | 0.31 | 92 | 1006.1 |
| 20260506175600 | 61 | 153 | 0.0 | 2.0 | 0.02 | 0.31 | 0.31 | 92 | 1006.1 |
| 20260506175507 | 61 | 153 | 0.0 | 2.0 | 0.02 | 0.31 | 0.31 | 92 | 1006.1 |
| 20260506175401 | 61 | 153 | 0.0 | 2.0 | 0.02 | 0.31 | 0.31 | 91 | 1006.1 |
| 20260506175259 | 61 | 153 | 0.0 | 2.0 | 0.02 | 0.31 | 0.31 | 91 | 1006.0 |
| 20260506175200 | 61 | 153 | 0.0 | 2.0 | 0.02 | 0.31 | 0.31 | 91 | 1006.1 |
| 20260506175101 | 61 | 153 | 0.0 | 2.0 | 0.02 | 0.31 | 0.31 | 91 | 1006.1 |
| 20260506175004 | 61 | 153 | 1.0 | 2.0 | 0.02 | 0.31 | 0.31 | 91 | 1006.1 |
| 20260506174900 | 61 | 153 | 0.0 | 2.0 | 0.02 | 0.31 | 0.31 | 91 | 1006.0 |
| 20260506174801 | 61 | 153 | 0.0 | 2.0 | 0.02 | 0.31 | 0.31 | 91 | 1006.1 |
| 20260506174701 | 61 | 153 | 0.0 | 2.0 | 0.02 | 0.31 | 0.31 | 91 | 1006.1 |
| 20260506174601 | 61 | 153 | 0.0 | 2.0 | 0.02 | 0.31 | 0.31 | 91 | 1006.1 |
| 20260506174506 | 61 | 153 | 1.0 | 2.0 | 0.02 | 0.31 | 0.31 | 92 | 1006.1 |
| 20260506174401 | 61 | 153 | 1.0 | 2.0 | 0.02 | 0.31 | 0.31 | 92 | 1006.1 |
| 20260506174301 | 61 | 153 | 0.0 | 2.0 | 0.02 | 0.31 | 0.31 | 91 | 1006.1 |
| 20260506174201 | 61 | 153 | 1.0 | 3.0 | 0.02 | 0.31 | 0.31 | 91 | 1006.1 |
| 20260506174004 | 61 | 153 | 0.0 | 3.0 | 0.01 | 0.30 | 0.30 | 91 | 1006.1 |
| 20260506173903 | 61 | 153 | 0.0 | 3.0 | 0.01 | 0.30 | 0.30 | 91 | 1006.1 |
| 20260506173801 | 61 | 153 | 1.0 | 3.0 | 0.01 | 0.30 | 0.30 | 91 | 1006.1 |
| 20260506173701 | 61 | 153 | 1.0 | 3.0 | 0.01 | 0.30 | 0.30 | 92 | 1006.0 |
| 20260506173600 | 61 | 153 | 0.0 | 3.0 | 0.01 | 0.30 | 0.30 | 91 | 1006.0 |
| 20260506173505 | 61 | 153 | 2.0 | 3.0 | 0.01 | 0.30 | 0.30 | 91 | 1006.1 |
| 20260506173402 | 61 | 153 | 0.0 | 3.0 | 0.01 | 0.30 | 0.30 | 91 | 1006.1 |
| 20260506173301 | 61 | 153 | 1.0 | 3.0 | 0.01 | 0.30 | 0.30 | 91 | 1006.1 |
| 20260506173005 | 61 | 146 | 0.0 | 2.0 | 0.01 | 0.30 | 0.30 | 91 | 1006.1 |
| 20260506172901 | 61 | 146 | 0.0 | 2.0 | 0.01 | 0.30 | 0.30 | 91 | 1006.0 |
| 20260506172800 | 61 | 146 | 1.0 | 2.0 | 0.01 | 0.30 | 0.30 | 91 | 1006.1 |
| 20260506172701 | 61 | 146 | 0.0 | 2.0 | 0.01 | 0.30 | 0.30 | 91 | 1006.1 |
| 20260506172600 | 61 | 146 | 0.0 | 2.0 | 0.01 | 0.30 | 0.30 | 91 | 1006.1 |
| 20260506172505 | 61 | 146 | 1.0 | 2.0 | 0.01 | 0.30 | 0.30 | 91 | 1006.1 |
| 20260506172401 | 61 | 146 | 2.0 | 2.0 | 0.01 | 0.30 | 0.30 | 91 | 1006.1 |
| 20260506172301 | 61 | 146 | 0.0 | 0.0 | 0.01 | 0.30 | 0.30 | 91 | 1006.1 |
| 20260506172200 | 61 | 146 | 0.0 | 0.0 | 0.01 | 0.30 | 0.30 | 91 | 1006.1 |
| 20260506172102 | 61 | 146 | 0.0 | 1.0 | 0.01 | 0.30 | 0.30 | 91 | 1006.1 |
| 20260506172006 | 61 | 146 | 0.0 | 1.0 | 0.01 | 0.30 | 0.30 | 91 | 1006.1 |
| 20260506171901 | 61 | 146 | 0.0 | 2.0 | 0.01 | 0.30 | 0.30 | 91 | 1006.1 |
| 20260506171802 | 61 | 146 | 0.0 | 2.0 | 0.01 | 0.30 | 0.30 | 91 | 1006.1 |
| 20260506171702 | 61 | 145 | 0.0 | 2.0 | 0.01 | 0.30 | 0.30 | 91 | 1006.1 |
| 20260506171601 | 61 | 146 | 0.0 | 2.0 | 0.01 | 0.30 | 0.30 | 91 | 1006.1 |
| 20260506171505 | 61 | 146 | 0.0 | 2.0 | 0.01 | 0.30 | 0.30 | 91 | 1006.1 |
| 20260506171401 | 61 | 146 | 0.0 | 2.0 | 0.01 | 0.30 | 0.30 | 91 | 1006.1 |
| 20260506171005 | 61 | 146 | 0.0 | 2.0 | 0.00 | 0.29 | 0.29 | 91 | 1006.1 |
| 20260506170801 | 61 | 146 | 1.0 | 1.0 | 0.00 | 0.29 | 0.29 | 91 | 1006.1 |
| 20260506170700 | 61 | 146 | 0.0 | 0.0 | 0.00 | 0.29 | 0.29 | 91 | 1006.1 |
| 20260506170601 | 61 | 145 | 0.0 | 0.0 | 0.00 | 0.29 | 0.29 | 91 | 1006.1 |
| 20260506170505 | 61 | 145 | 0.0 | 0.0 | 0.00 | 0.29 | 0.29 | 91 | 1006.1 |
| 20260506170401 | 61 | 145 | 0.0 | 0.0 | 0.00 | 0.29 | 0.29 | 91 | 1006.0 |
| 20260506170300 | 61 | 146 | 0.0 | 0.0 | 0.00 | 0.29 | 0.29 | 91 | 1006.1 |
| 20260506170202 | 61 | 146 | 0.0 | 2.0 | 0.00 | 0.29 | 0.29 | 91 | 1006.1 |
| 20260506170101 | 61 | 145 | 0.0 | 2.0 | 0.00 | 0.29 | 0.29 | 91 | 1006.2 |
| 20260506170005 | 61 | 146 | 0.0 | 2.0 | 0.00 | 0.29 | 0.29 | 91 | 1006.2 |
| 20260506165902 | 61 | 146 | 0.0 | 2.0 | 0.00 | 0.29 | 0.29 | 91 | 1006.2 |
| 20260506165801 | 61 | 145 | 0.0 | 2.0 | 0.00 | 0.29 | 0.29 | 91 | 1006.2 |
| 20260506165701 | 61 | 146 | 0.0 | 2.0 | 0.00 | 0.29 | 0.29 | 91 | 1006.2 |
| 20260506165603 | 61 | 145 | 0.0 | 2.0 | 0.00 | 0.29 | 0.29 | 92 | 1006.1 |
| 20260506165102 | 61 | 146 | 0.0 | 2.0 | 0.00 | 0.29 | 0.29 | 92 | 1006.1 |
| 20260506165007 | 61 | 146 | 0.0 | 2.0 | 0.00 | 0.29 | 0.29 | 92 | 1006.1 |
| 20260506164901 | 61 | 146 | 0.0 | 2.0 | 0.00 | 0.29 | 0.29 | 92 | 1006.2 |
| 20260506164804 | 61 | 146 | 0.0 | 2.0 | 0.00 | 0.29 | 0.29 | 92 | 1006.1 |
| 20260506164702 | 61 | 146 | 0.0 | 2.0 | 0.00 | 0.29 | 0.29 | 92 | 1006.1 |
| 20260506164506 | 61 | 145 | 0.0 | 0.0 | 0.00 | 0.29 | 0.29 | 92 | 1006.2 |
| 20260506164401 | 61 | 145 | 0.0 | 0.0 | 0.00 | 0.29 | 0.29 | 92 | 1006.2 |
| 20260506164302 | 61 | 145 | 0.0 | 0.0 | 0.00 | 0.29 | 0.29 | 92 | 1006.2 |
| 20260506164201 | 61 | 145 | 0.0 | 0.0 | 0.00 | 0.29 | 0.29 | 92 | 1006.2 |
| 20260506164102 | 61 | 145 | 0.0 | 0.0 | 0.00 | 0.29 | 0.29 | 92 | 1006.2 |
| 20260506164006 | 61 | 145 | 0.0 | 0.0 | 0.00 | 0.29 | 0.29 | 92 | 1006.2 |
| 20260506163801 | 61 | 145 | 0.0 | 0.0 | 0.01 | 0.29 | 0.29 | 92 | 1006.2 |
| 20260506163701 | 61 | 145 | 0.0 | 0.0 | 0.01 | 0.29 | 0.29 | 92 | 1006.3 |
| 20260506163601 | 61 | 145 | 0.0 | 0.0 | 0.01 | 0.29 | 0.29 | 92 | 1006.3 |
| 20260506163505 | 61 | 145 | 0.0 | 0.0 | 0.01 | 0.29 | 0.29 | 92 | 1006.3 |
| 20260506163302 | 61 | 145 | 0.0 | 0.0 | 0.01 | 0.29 | 0.29 | 92 | 1006.3 |
| 20260506163204 | 61 | 145 | 0.0 | 0.0 | 0.01 | 0.29 | 0.29 | 92 | 1006.3 |
| 20260506163102 | 61 | 145 | 0.0 | 0.0 | 0.01 | 0.29 | 0.29 | 92 | 1006.3 |
| 20260506163006 | 61 | 145 | 0.0 | 0.0 | 0.01 | 0.29 | 0.29 | 92 | 1006.3 |
| 20260506162901 | 61 | 145 | 0.0 | 0.0 | 0.01 | 0.29 | 0.29 | 92 | 1006.3 |
| 20260506162802 | 61 | 145 | 0.0 | 0.0 | 0.01 | 0.29 | 0.29 | 92 | 1006.3 |
| 20260506162702 | 61 | 145 | 0.0 | 1.0 | 0.01 | 0.29 | 0.29 | 92 | 1006.3 |
| 20260506162601 | 61 | 145 | 0.0 | 1.0 | 0.01 | 0.29 | 0.29 | 92 | 1006.3 |
| 20260506162505 | 61 | 145 | 0.0 | 1.0 | 0.01 | 0.29 | 0.29 | 92 | 1006.3 |
| 20260506162402 | 61 | 145 | 0.0 | 1.0 | 0.01 | 0.29 | 0.29 | 92 | 1006.3 |
| 20260506162301 | 61 | 145 | 0.0 | 1.0 | 0.01 | 0.29 | 0.29 | 92 | 1006.3 |
| 20260506162201 | 61 | 145 | 0.0 | 1.0 | 0.01 | 0.29 | 0.29 | 92 | 1006.4 |
| 20260506162103 | 61 | 145 | 0.0 | 1.0 | 0.01 | 0.29 | 0.29 | 92 | 1006.3 |
| 20260506162006 | 61 | 145 | 0.0 | 1.0 | 0.01 | 0.29 | 0.29 | 92 | 1006.3 |
| 20260506161902 | 61 | 145 | 0.0 | 1.0 | 0.01 | 0.29 | 0.29 | 92 | 1006.3 |
| 20260506161802 | 61 | 145 | 0.0 | 1.0 | 0.01 | 0.29 | 0.29 | 92 | 1006.3 |
| 20260506161702 | 61 | 145 | 1.0 | 1.0 | 0.01 | 0.29 | 0.29 | 92 | 1006.3 |
| 20260506161603 | 61 | 145 | 1.0 | 2.0 | 0.01 | 0.29 | 0.29 | 92 | 1006.3 |
| 20260506161505 | 60 | 145 | 0.0 | 2.0 | 0.01 | 0.29 | 0.29 | 92 | 1006.3 |
| 20260506161402 | 60 | 145 | 0.0 | 2.0 | 0.01 | 0.29 | 0.29 | 92 | 1006.3 |
| 20260506161302 | 60 | 145 | 0.0 | 2.0 | 0.01 | 0.29 | 0.29 | 92 | 1006.3 |
| 20260506161202 | 61 | 145 | 1.0 | 2.0 | 0.01 | 0.29 | 0.29 | 92 | 1006.4 |
| 20260506161102 | 60 | 145 | 0.0 | 2.0 | 0.01 | 0.29 | 0.29 | 92 | 1006.4 |
| 20260506161006 | 60 | 145 | 0.0 | 2.0 | 0.01 | 0.29 | 0.29 | 92 | 1006.4 |
| 20260506160901 | 60 | 145 | 0.0 | 2.0 | 0.01 | 0.29 | 0.29 | 92 | 1006.3 |
| 20260506160802 | 60 | 145 | 0.0 | 2.0 | 0.01 | 0.29 | 0.29 | 92 | 1006.3 |
| 20260506160702 | 60 | 145 | 1.0 | 2.0 | 0.02 | 0.29 | 0.29 | 92 | 1006.3 |
| 20260506160602 | 61 | 145 | 0.0 | 2.0 | 0.02 | 0.29 | 0.29 | 92 | 1006.3 |
| 20260506160505 | 61 | 145 | 2.0 | 2.0 | 0.02 | 0.29 | 0.29 | 92 | 1006.2 |
| 20260506160301 | 60 | 145 | 0.0 | 2.0 | 0.03 | 0.29 | 0.29 | 92 | 1006.2 |
| 20260506160202 | 61 | 145 | 0.0 | 2.0 | 0.03 | 0.29 | 0.29 | 92 | 1006.2 |
| 20260506160006 | 60 | 145 | 0.0 | 2.0 | 0.04 | 0.29 | 0.29 | 92 | 1006.2 |
| 20260506155802 | 60 | 145 | 0.0 | 2.0 | 0.04 | 0.29 | 0.29 | 92 | 1006.2 |
| 20260506155701 | 60 | 145 | 1.0 | 2.0 | 0.04 | 0.29 | 0.29 | 92 | 1006.3 |
| 20260506155505 | 60 | 145 | 0.0 | 2.0 | 0.05 | 0.29 | 0.29 | 92 | 1006.3 |
| 20260506155401 | 60 | 145 | 0.0 | 2.0 | 0.06 | 0.29 | 0.29 | 92 | 1006.3 |
| 20260506155300 | 60 | 145 | 0.0 | 2.0 | 0.06 | 0.29 | 0.29 | 92 | 1006.3 |
| 20260506155202 | 60 | 145 | 0.0 | 2.0 | 0.06 | 0.29 | 0.29 | 92 | 1006.2 |
| 20260506155100 | 60 | 145 | 0.0 | 2.0 | 0.06 | 0.29 | 0.29 | 92 | 1006.3 |
| 20260506155005 | 60 | 145 | 0.0 | 2.0 | 0.06 | 0.29 | 0.29 | 92 | 1006.3 |
| 20260506154802 | 60 | 145 | 1.0 | 2.0 | 0.07 | 0.29 | 0.29 | 92 | 1006.3 |
| 20260506154701 | 60 | 145 | 1.0 | 2.0 | 0.07 | 0.29 | 0.29 | 92 | 1006.2 |
| 20260506154600 | 60 | 145 | 1.0 | 2.0 | 0.08 | 0.29 | 0.29 | 92 | 1006.2 |
| 20260506154505 | 60 | 145 | 0.0 | 2.0 | 0.08 | 0.29 | 0.29 | 92 | 1006.3 |
| 20260506154400 | 60 | 145 | 0.0 | 2.0 | 0.08 | 0.29 | 0.29 | 92 | 1006.3 |
| 20260506154300 | 60 | 145 | 0.0 | 2.0 | 0.08 | 0.29 | 0.29 | 92 | 1006.3 |
| 20260506154202 | 60 | 145 | 1.0 | 2.0 | 0.09 | 0.29 | 0.29 | 92 | 1006.3 |
| 20260506154101 | 60 | 145 | 0.0 | 2.0 | 0.09 | 0.29 | 0.29 | 92 | 1006.3 |
| 20260506154005 | 60 | 145 | 0.0 | 2.0 | 0.08 | 0.28 | 0.28 | 92 | 1006.2 |
| 20260506153900 | 60 | 145 | 0.0 | 2.0 | 0.09 | 0.28 | 0.28 | 92 | 1006.3 |
| 20260506153800 | 60 | 145 | 0.0 | 2.0 | 0.09 | 0.28 | 0.28 | 92 | 1006.2 |
| 20260506153600 | 60 | 145 | 2.0 | 2.0 | 0.09 | 0.28 | 0.28 | 92 | 1006.2 |
| 20260506153505 | 60 | 145 | 2.0 | 2.0 | 0.09 | 0.28 | 0.28 | 92 | 1006.2 |
| 20260506153402 | 60 | 145 | 0.0 | 2.0 | 0.09 | 0.28 | 0.28 | 92 | 1006.3 |
| 20260506153301 | 60 | 145 | 0.0 | 2.0 | 0.10 | 0.28 | 0.28 | 92 | 1006.2 |
| 20260506153201 | 60 | 145 | 1.0 | 2.0 | 0.10 | 0.28 | 0.28 | 92 | 1006.2 |
| 20260506153100 | 60 | 145 | 0.0 | 4.0 | 0.10 | 0.28 | 0.28 | 92 | 1006.2 |
| 20260506152900 | 60 | 145 | 2.0 | 5.0 | 0.11 | 0.28 | 0.28 | 92 | 1006.1 |
| 20260506152801 | 60 | 145 | 0.0 | 5.0 | 0.11 | 0.28 | 0.28 | 92 | 1006.2 |
| 20260506152700 | 60 | 145 | 1.0 | 5.0 | 0.11 | 0.28 | 0.28 | 92 | 1006.1 |
| 20260506152600 | 60 | 145 | 1.0 | 5.0 | 0.11 | 0.28 | 0.28 | 92 | 1006.1 |
| 20260506152402 | 60 | 146 | 1.0 | 5.0 | 0.12 | 0.28 | 0.28 | 92 | 1006.1 |
| 20260506152305 | 60 | 146 | 2.0 | 5.0 | 0.13 | 0.28 | 0.28 | 92 | 1006.0 |
| 20260506152201 | 60 | 146 | 1.0 | 5.0 | 0.13 | 0.28 | 0.28 | 92 | 1006.0 |
| 20260506152101 | 60 | 145 | 2.0 | 5.0 | 0.13 | 0.28 | 0.28 | 92 | 1006.0 |
| 20260506151801 | 60 | 188 | 1.0 | 4.0 | 0.15 | 0.28 | 0.28 | 92 | 1006.1 |
| 20260506151701 | 60 | 188 | 2.0 | 4.0 | 0.15 | 0.28 | 0.28 | 92 | 1006.0 |
| 20260506151601 | 60 | 188 | 3.0 | 4.0 | 0.15 | 0.28 | 0.28 | 92 | 1006.0 |
| 20260506151505 | 60 | 140 | 4.0 | 4.0 | 0.15 | 0.28 | 0.28 | 92 | 1006.0 |
| 20260506151359 | 60 | 143 | 0.0 | 4.0 | 0.16 | 0.28 | 0.28 | 92 | 1006.0 |
| 20260506151300 | 60 | 143 | 0.0 | 4.0 | 0.16 | 0.28 | 0.28 | 92 | 1006.0 |
| 20260506151201 | 60 | 143 | 4.0 | 4.0 | 0.16 | 0.28 | 0.28 | 92 | 1006.0 |
| 20260506151101 | 60 | 175 | 1.0 | 4.0 | 0.16 | 0.28 | 0.28 | 92 | 1006.0 |
| 20260506151006 | 60 | 174 | 3.0 | 5.0 | 0.16 | 0.28 | 0.28 | 92 | 1006.1 |
| 20260506150901 | 60 | 124 | 1.0 | 3.0 | 0.16 | 0.28 | 0.28 | 92 | 1006.1 |
| 20260506150802 | 60 | 124 | 0.0 | 3.0 | 0.16 | 0.28 | 0.28 | 92 | 1006.2 |
| 20260506150602 | 60 | 124 | 1.0 | 3.0 | 0.15 | 0.27 | 0.27 | 92 | 1006.3 |
| 20260506150505 | 60 | 124 | 2.0 | 3.0 | 0.15 | 0.27 | 0.27 | 92 | 1006.3 |
| 20260506150401 | 60 | 124 | 1.0 | 3.0 | 0.15 | 0.27 | 0.27 | 92 | 1006.3 |
| 20260506150304 | 60 | 124 | 0.0 | 3.0 | 0.14 | 0.26 | 0.26 | 92 | 1006.4 |
| 20260506150202 | 60 | 124 | 0.0 | 4.0 | 0.14 | 0.26 | 0.26 | 92 | 1006.3 |
| 20260506150006 | 60 | 124 | 1.0 | 4.0 | 0.13 | 0.25 | 0.25 | 92 | 1006.3 |
| 20260506145901 | 60 | 124 | 0.0 | 4.0 | 0.13 | 0.25 | 0.25 | 92 | 1006.3 |
| 20260506145801 | 60 | 123 | 2.0 | 4.0 | 0.13 | 0.25 | 0.25 | 92 | 1006.3 |
| 20260506145702 | 60 | 147 | 2.0 | 4.0 | 0.13 | 0.25 | 0.25 | 92 | 1006.4 |
| 20260506145603 | 60 | 147 | 0.0 | 4.0 | 0.12 | 0.24 | 0.24 | 92 | 1006.4 |
| 20260506145305 | 60 | 292 | 4.0 | 5.0 | 0.12 | 0.23 | 0.23 | 92 | 1006.4 |
| 20260506145203 | 60 | 163 | 1.0 | 5.0 | 0.12 | 0.23 | 0.23 | 92 | 1006.4 |
| 20260506144901 | 60 | 142 | 1.0 | 4.0 | 0.12 | 0.23 | 0.23 | 92 | 1006.4 |
| 20260506144505 | 60 | 280 | 0.0 | 6.0 | 0.10 | 0.21 | 0.21 | 92 | 1006.5 |
| 20260506144403 | 60 | 280 | 0.0 | 6.0 | 0.10 | 0.21 | 0.21 | 92 | 1006.6 |
| 20260506144302 | 60 | 280 | 2.0 | 6.0 | 0.10 | 0.21 | 0.21 | 92 | 1006.6 |
| 20260506144201 | 60 | 157 | 1.0 | 6.0 | 0.09 | 0.20 | 0.20 | 93 | 1006.7 |
| 20260506144102 | 60 | 157 | 0.0 | 6.0 | 0.10 | 0.20 | 0.20 | 93 | 1006.7 |
| 20260506144006 | 60 | 157 | 1.0 | 6.0 | 0.10 | 0.20 | 0.20 | 93 | 1006.8 |
| 20260506143902 | 60 | 157 | 1.0 | 8.0 | 0.09 | 0.19 | 0.19 | 93 | 1006.8 |
| 20260506143803 | 60 | 141 | 1.0 | 8.0 | 0.09 | 0.19 | 0.19 | 93 | 1006.8 |
| 20260506143702 | 60 | 176 | 1.0 | 8.0 | 0.10 | 0.19 | 0.19 | 93 | 1006.8 |
| 20260506143602 | 60 | 183 | 2.0 | 8.0 | 0.10 | 0.19 | 0.19 | 93 | 1006.8 |
| 20260506143505 | 60 | 184 | 1.0 | 8.0 | 0.10 | 0.19 | 0.19 | 93 | 1006.8 |
| 20260506143403 | 60 | 298 | 2.0 | 8.0 | 0.10 | 0.19 | 0.19 | 93 | 1006.8 |
| 20260506143303 | 60 | 263 | 3.0 | 8.0 | 0.09 | 0.18 | 0.18 | 93 | 1006.9 |
| 20260506143203 | 60 | 159 | 2.0 | 8.0 | 0.09 | 0.18 | 0.18 | 93 | 1006.9 |
| 20260506143101 | 60 | 158 | 1.0 | 8.0 | 0.09 | 0.18 | 0.18 | 93 | 1006.9 |
| 20260506143006 | 60 | 158 | 3.0 | 8.0 | 0.09 | 0.17 | 0.17 | 93 | 1007.0 |
| 20260506142902 | 60 | 186 | 2.0 | 4.0 | 0.09 | 0.17 | 0.17 | 93 | 1006.9 |
| 20260506142802 | 61 | 188 | 0.0 | 5.0 | 0.09 | 0.17 | 0.17 | 93 | 1007.0 |
| 20260506142703 | 61 | 188 | 1.0 | 5.0 | 0.09 | 0.17 | 0.17 | 93 | 1007.0 |
| 20260506142603 | 61 | 188 | 4.0 | 5.0 | 0.09 | 0.17 | 0.17 | 93 | 1006.9 |
| 20260506142506 | 61 | 306 | 2.0 | 5.0 | 0.08 | 0.16 | 0.16 | 93 | 1007.0 |
| 20260506142202 | 61 | 325 | 1.0 | 5.0 | 0.08 | 0.15 | 0.15 | 93 | 1006.9 |
| 20260506142103 | 61 | 42 | 1.0 | 5.0 | 0.08 | 0.15 | 0.15 | 93 | 1006.9 |
| 20260506142005 | 61 | 246 | 1.0 | 5.0 | 0.07 | 0.14 | 0.14 | 93 | 1006.9 |
| 20260506141901 | 61 | 198 | 3.0 | 5.0 | 0.06 | 0.13 | 0.13 | 93 | 1006.9 |
| 20260506141802 | 61 | 229 | 3.0 | 4.0 | 0.06 | 0.13 | 0.13 | 94 | 1006.8 |
| 20260506141702 | 61 | 98 | 2.0 | 4.0 | 0.06 | 0.13 | 0.13 | 94 | 1006.9 |
| 20260506141602 | 61 | 216 | 2.0 | 4.0 | 0.06 | 0.13 | 0.13 | 94 | 1006.8 |
| 20260506141506 | 61 | 217 | 0.0 | 4.0 | 0.06 | 0.13 | 0.13 | 94 | 1006.8 |
| 20260506141402 | 61 | 217 | 0.0 | 4.0 | 0.05 | 0.12 | 0.12 | 94 | 1006.9 |
| 20260506141302 | 61 | 217 | 1.0 | 4.0 | 0.05 | 0.12 | 0.12 | 94 | 1006.8 |
| 20260506141202 | 61 | 216 | 1.0 | 5.0 | 0.05 | 0.12 | 0.12 | 94 | 1006.8 |
| 20260506141102 | 61 | 220 | 2.0 | 5.0 | 0.05 | 0.12 | 0.12 | 94 | 1006.8 |
| 20260506141006 | 61 | 298 | 1.0 | 5.0 | 0.05 | 0.12 | 0.12 | 94 | 1006.8 |
| 20260506140802 | 61 | 191 | 3.0 | 5.0 | 0.05 | 0.12 | 0.12 | 94 | 1006.7 |
| 20260506140702 | 61 | 137 | 0.0 | 5.0 | 0.05 | 0.12 | 0.12 | 94 | 1006.7 |
| 20260506140602 | 61 | 140 | 2.0 | 5.0 | 0.05 | 0.12 | 0.12 | 94 | 1006.7 |
| 20260506140505 | 61 | 140 | 3.0 | 5.0 | 0.05 | 0.12 | 0.12 | 93 | 1006.7 |
| 20260506140401 | 61 | 139 | 3.0 | 5.0 | 0.05 | 0.12 | 0.12 | 93 | 1006.7 |
| 20260506140202 | 61 | 92 | 2.0 | 4.0 | 0.05 | 0.12 | 0.12 | 93 | 1006.6 |
| 20260506140006 | 61 | 44 | 3.0 | 4.0 | 0.05 | 0.12 | 0.12 | 93 | 1006.5 |
| 20260506135902 | 61 | 163 | 1.0 | 4.0 | 0.05 | 0.12 | 0.12 | 93 | 1006.5 |
| 20260506135801 | 61 | 178 | 3.0 | 4.0 | 0.05 | 0.12 | 0.12 | 93 | 1006.5 |
| 20260506135701 | 61 | 202 | 1.0 | 4.0 | 0.05 | 0.12 | 0.12 | 93 | 1006.4 |
| 20260506135601 | 61 | 216 | 1.0 | 4.0 | 0.05 | 0.12 | 0.12 | 93 | 1006.4 |
| 20260506135505 | 61 | 216 | 0.0 | 4.0 | 0.05 | 0.12 | 0.12 | 93 | 1006.4 |
| 20260506135401 | 61 | 216 | 1.0 | 4.0 | 0.05 | 0.12 | 0.12 | 93 | 1006.4 |
| 20260506135301 | 61 | 216 | 0.0 | 4.0 | 0.04 | 0.11 | 0.11 | 93 | 1006.4 |
| 20260506135201 | 61 | 217 | 4.0 | 4.0 | 0.04 | 0.11 | 0.11 | 93 | 1006.4 |
| 20260506135101 | 61 | 236 | 0.0 | 2.0 | 0.04 | 0.11 | 0.11 | 93 | 1006.4 |
| 20260506134801 | 61 | 264 | 0.0 | 3.0 | 0.04 | 0.11 | 0.11 | 94 | 1006.4 |
| 20260506134505 | 61 | 264 | 0.0 | 3.0 | 0.04 | 0.11 | 0.11 | 94 | 1006.4 |
| 20260506134401 | 61 | 264 | 0.0 | 3.0 | 0.04 | 0.11 | 0.11 | 94 | 1006.5 |
| 20260506134301 | 61 | 264 | 1.0 | 3.0 | 0.04 | 0.11 | 0.11 | 94 | 1006.5 |
| 20260506134202 | 60 | 264 | 0.0 | 3.0 | 0.04 | 0.11 | 0.11 | 94 | 1006.5 |
| 20260506134102 | 60 | 264 | 0.0 | 3.0 | 0.03 | 0.10 | 0.10 | 94 | 1006.5 |
| 20260506134005 | 60 | 264 | 0.0 | 3.0 | 0.03 | 0.10 | 0.10 | 94 | 1006.5 |
| 20260506133901 | 60 | 266 | 2.0 | 3.0 | 0.04 | 0.10 | 0.10 | 94 | 1006.6 |
| 20260506133802 | 61 | 296 | 1.0 | 3.0 | 0.04 | 0.10 | 0.10 | 94 | 1006.5 |
| 20260506133701 | 60 | 298 | 0.0 | 3.0 | 0.03 | 0.09 | 0.09 | 94 | 1006.5 |
| 20260506133601 | 61 | 298 | 0.0 | 3.0 | 0.03 | 0.09 | 0.09 | 94 | 1006.5 |
| 20260506133506 | 61 | 298 | 1.0 | 6.0 | 0.03 | 0.09 | 0.09 | 94 | 1006.5 |
| 20260506133400 | 61 | 89 | 0.0 | 6.0 | 0.03 | 0.09 | 0.09 | 94 | 1006.6 |
| 20260506133301 | 61 | 89 | 1.0 | 6.0 | 0.03 | 0.09 | 0.09 | 94 | 1006.5 |
| 20260506133202 | 61 | 89 | 0.0 | 6.0 | 0.03 | 0.09 | 0.09 | 94 | 1006.6 |
| 20260506133102 | 61 | 89 | 0.0 | 6.0 | 0.03 | 0.09 | 0.09 | 94 | 1006.5 |
| 20260506133006 | 61 | 89 | 1.0 | 6.0 | 0.02 | 0.08 | 0.08 | 94 | 1006.5 |
| 20260506132802 | 61 | 210 | 0.0 | 6.0 | 0.02 | 0.08 | 0.08 | 94 | 1006.5 |
| 20260506132701 | 61 | 211 | 1.0 | 6.0 | 0.02 | 0.08 | 0.08 | 94 | 1006.4 |
| 20260506132600 | 61 | 159 | 4.0 | 6.0 | 0.02 | 0.08 | 0.08 | 94 | 1006.3 |
| 20260506132507 | 61 | 317 | 2.0 | 5.0 | 0.02 | 0.08 | 0.08 | 94 | 1006.4 |
| 20260506132402 | 61 | 175 | 1.0 | 3.0 | 0.02 | 0.08 | 0.08 | 94 | 1006.5 |
| 20260506132302 | 61 | 175 | 1.0 | 3.0 | 0.03 | 0.08 | 0.08 | 94 | 1006.4 |
| 20260506132201 | 61 | 175 | 0.0 | 3.0 | 0.02 | 0.07 | 0.07 | 94 | 1006.5 |
| 20260506132101 | 61 | 175 | 1.0 | 3.0 | 0.02 | 0.07 | 0.07 | 94 | 1006.5 |
| 20260506131801 | 61 | 174 | 0.0 | 4.0 | 0.02 | 0.07 | 0.07 | 94 | 1006.7 |
| 20260506131701 | 61 | 174 | 2.0 | 4.0 | 0.02 | 0.07 | 0.07 | 94 | 1006.6 |
| 20260506131604 | 61 | 173 | 1.0 | 4.0 | 0.02 | 0.07 | 0.07 | 94 | 1006.6 |
| 20260506131505 | 61 | 113 | 1.0 | 4.0 | 0.02 | 0.07 | 0.07 | 94 | 1006.7 |
| 20260506131401 | 61 | 113 | 0.0 | 4.0 | 0.02 | 0.07 | 0.07 | 94 | 1006.7 |
| 20260506131301 | 61 | 113 | 0.0 | 5.0 | 0.02 | 0.07 | 0.07 | 94 | 1006.7 |
| 20260506131201 | 61 | 113 | 2.0 | 5.0 | 0.02 | 0.07 | 0.07 | 94 | 1006.7 |
| 20260506131006 | 61 | 113 | 3.0 | 5.0 | 0.02 | 0.07 | 0.07 | 94 | 1006.7 |
| 20260506130902 | 61 | 190 | 2.0 | 5.0 | 0.02 | 0.07 | 0.07 | 94 | 1006.7 |
| 20260506130800 | 61 | 190 | 2.0 | 5.0 | 0.03 | 0.07 | 0.07 | 94 | 1006.7 |
| 20260506130701 | 61 | 189 | 0.0 | 5.0 | 0.03 | 0.07 | 0.07 | 94 | 1006.7 |
| 20260506130505 | 61 | 189 | 2.0 | 5.0 | 0.03 | 0.07 | 0.07 | 94 | 1006.7 |
| 20260506130400 | 61 | 189 | 3.0 | 5.0 | 0.03 | 0.07 | 0.07 | 94 | 1006.6 |
| 20260506130200 | 61 | 184 | 1.0 | 2.0 | 0.04 | 0.07 | 0.07 | 94 | 1006.6 |
| 20260506130007 | 61 | 185 | 0.0 | 2.0 | 0.04 | 0.07 | 0.07 | 94 | 1006.6 |
| 20260506125902 | 61 | 185 | 0.0 | 2.0 | 0.04 | 0.07 | 0.07 | 94 | 1006.6 |
| 20260506125803 | 61 | 185 | 0.0 | 2.0 | 0.04 | 0.07 | 0.07 | 94 | 1006.7 |
| 20260506125601 | 61 | 185 | 1.0 | 2.0 | 0.04 | 0.07 | 0.07 | 94 | 1006.6 |
| 20260506125505 | 61 | 185 | 0.0 | 2.0 | 0.04 | 0.07 | 0.07 | 94 | 1006.6 |
| 20260506125403 | 61 | 185 | 0.0 | 3.0 | 0.04 | 0.07 | 0.07 | 94 | 1006.6 |
| 20260506125305 | 61 | 185 | 0.0 | 3.0 | 0.04 | 0.07 | 0.07 | 94 | 1006.6 |
| 20260506125103 | 61 | 185 | 1.0 | 3.0 | 0.04 | 0.07 | 0.07 | 94 | 1006.7 |
| 20260506125005 | 61 | 185 | 1.0 | 3.0 | 0.04 | 0.07 | 0.07 | 94 | 1006.6 |
| 20260506124801 | 61 | 185 | 0.0 | 3.0 | 0.04 | 0.07 | 0.07 | 94 | 1006.5 |
| 20260506124702 | 61 | 185 | 1.0 | 3.0 | 0.04 | 0.07 | 0.07 | 94 | 1006.5 |
| 20260506124505 | 61 | 185 | 2.0 | 3.0 | 0.05 | 0.07 | 0.07 | 94 | 1006.6 |
| 20260506124403 | 61 | 185 | 0.0 | 2.0 | 0.05 | 0.07 | 0.07 | 94 | 1006.7 |
| 20260506124302 | 61 | 185 | 0.0 | 2.0 | 0.05 | 0.07 | 0.07 | 94 | 1006.7 |
| 20260506124201 | 61 | 185 | 0.0 | 2.0 | 0.05 | 0.07 | 0.07 | 94 | 1006.8 |
| 20260506124103 | 61 | 185 | 0.0 | 3.0 | 0.05 | 0.07 | 0.07 | 94 | 1006.7 |
| 20260506124005 | 61 | 185 | 0.0 | 3.0 | 0.05 | 0.07 | 0.07 | 94 | 1006.7 |
| 20260506123903 | 61 | 185 | 0.0 | 4.0 | 0.05 | 0.06 | 0.06 | 94 | 1006.6 |
| 20260506123505 | 60 | 185 | 0.0 | 4.0 | 0.05 | 0.06 | 0.06 | 94 | 1006.8 |
| 20260506123402 | 60 | 185 | 0.0 | 4.0 | 0.05 | 0.06 | 0.06 | 94 | 1006.7 |
| 20260506123302 | 60 | 185 | 0.0 | 4.0 | 0.05 | 0.06 | 0.06 | 94 | 1006.8 |
| 20260506123201 | 60 | 185 | 1.0 | 4.0 | 0.05 | 0.06 | 0.06 | 94 | 1006.8 |
| 20260506123102 | 60 | 194 | 2.0 | 4.0 | 0.05 | 0.06 | 0.06 | 94 | 1006.8 |
| 20260506123006 | 60 | 279 | 1.0 | 4.0 | 0.05 | 0.06 | 0.06 | 94 | 1006.8 |
| 20260506122902 | 60 | 187 | 2.0 | 3.0 | 0.05 | 0.06 | 0.06 | 94 | 1006.8 |
| 20260506122801 | 60 | 187 | 0.0 | 3.0 | 0.05 | 0.06 | 0.06 | 94 | 1006.8 |
| 20260506122702 | 60 | 187 | 0.0 | 3.0 | 0.05 | 0.06 | 0.06 | 94 | 1006.8 |
| 20260506122603 | 61 | 147 | 3.0 | 3.0 | 0.05 | 0.06 | 0.06 | 94 | 1006.8 |
| 20260506122506 | 60 | 147 | 0.0 | 3.0 | 0.05 | 0.06 | 0.06 | 94 | 1006.8 |
| 20260506122402 | 61 | 147 | 0.0 | 3.0 | 0.05 | 0.06 | 0.06 | 94 | 1006.9 |
| 20260506122302 | 61 | 147 | 2.0 | 3.0 | 0.04 | 0.05 | 0.05 | 94 | 1006.9 |
| 20260506122202 | 61 | 110 | 3.0 | 3.0 | 0.04 | 0.05 | 0.05 | 94 | 1006.9 |
| 20260506122006 | 61 | 287 | 1.0 | 2.0 | 0.04 | 0.05 | 0.05 | 94 | 1007.0 |
| 20260506121902 | 61 | 287 | 0.0 | 2.0 | 0.04 | 0.05 | 0.05 | 93 | 1006.9 |
| 20260506121702 | 61 | 287 | 0.0 | 2.0 | 0.04 | 0.05 | 0.05 | 93 | 1007.0 |
| 20260506121602 | 61 | 287 | 0.0 | 2.0 | 0.04 | 0.05 | 0.05 | 93 | 1007.0 |
| 20260506121506 | 61 | 287 | 0.0 | 2.0 | 0.04 | 0.05 | 0.05 | 93 | 1007.0 |
| 20260506121402 | 61 | 287 | 0.0 | 2.0 | 0.04 | 0.05 | 0.05 | 93 | 1007.0 |
| 20260506121201 | 61 | 287 | 0.0 | 3.0 | 0.05 | 0.05 | 0.05 | 93 | 1007.0 |
| 20260506121101 | 61 | 287 | 0.0 | 3.0 | 0.05 | 0.05 | 0.05 | 93 | 1007.1 |
| 20260506121007 | 61 | 287 | 0.0 | 3.0 | 0.05 | 0.05 | 0.05 | 93 | 1007.1 |
| 20260506120904 | 61 | 287 | 0.0 | 3.0 | 0.05 | 0.05 | 0.05 | 93 | 1007.1 |
| 20260506120803 | 61 | 287 | 0.0 | 3.0 | 0.04 | 0.04 | 0.04 | 93 | 1007.1 |
| 20260506120603 | 61 | 287 | 0.0 | 3.0 | 0.04 | 0.04 | 0.04 | 93 | 1007.2 |
| 20260506120506 | 61 | 287 | 0.0 | 3.0 | 0.04 | 0.04 | 0.04 | 93 | 1007.2 |
| 20260506120403 | 61 | 286 | 1.0 | 3.0 | 0.04 | 0.04 | 0.04 | 92 | 1007.2 |
| 20260506120301 | 61 | 184 | 1.0 | 2.0 | 0.03 | 0.03 | 0.03 | 92 | 1007.2 |
| 20260506120203 | 61 | 184 | 0.0 | 2.0 | 0.03 | 0.03 | 0.03 | 92 | 1007.2 |
| 20260506120007 | 61 | 184 | 0.0 | 2.0 | 0.03 | 0.03 | 0.03 | 92 | 1007.2 |
| 20260506115802 | 61 | 184 | 2.0 | 4.0 | 0.03 | 0.03 | 0.03 | 92 | 1007.2 |
| 20260506115701 | 61 | 184 | 1.0 | 4.0 | 0.03 | 0.03 | 0.03 | 92 | 1007.1 |
| 20260506115603 | 61 | 184 | 2.0 | 4.0 | 0.03 | 0.03 | 0.03 | 92 | 1007.1 |
| 20260506115505 | 61 | 184 | 2.0 | 4.0 | 0.03 | 0.03 | 0.03 | 92 | 1007.2 |
| 20260506115400 | 61 | 184 | 0.0 | 4.0 | 0.03 | 0.03 | 0.03 | 91 | 1007.1 |
| 20260506115306 | 61 | 184 | 0.0 | 4.0 | 0.03 | 0.03 | 0.03 | 91 | 1007.2 |
| 20260506115101 | 61 | 184 | 0.0 | 4.0 | 0.03 | 0.03 | 0.03 | 91 | 1007.1 |
| 20260506115005 | 61 | 184 | 2.0 | 4.0 | 0.03 | 0.03 | 0.03 | 91 | 1007.1 |
| 20260506114801 | 61 | 175 | 1.0 | 2.0 | 0.03 | 0.03 | 0.03 | 90 | 1007.1 |
| 20260506114702 | 62 | 175 | 1.0 | 2.0 | 0.02 | 0.02 | 0.02 | 90 | 1007.0 |
| 20260506114600 | 62 | 175 | 2.0 | 2.0 | 0.02 | 0.02 | 0.02 | 90 | 1006.9 |
| 20260506114505 | 62 | 174 | 1.0 | 2.0 | 0.02 | 0.02 | 0.02 | 90 | 1007.0 |
| 20260506114400 | 62 | 175 | 0.0 | 2.0 | 0.02 | 0.02 | 0.02 | 90 | 1006.9 |
| 20260506114301 | 62 | 175 | 0.0 | 2.0 | 0.02 | 0.02 | 0.02 | 90 | 1006.9 |
| 20260506114101 | 62 | 175 | 0.0 | 2.0 | 0.02 | 0.02 | 0.02 | 89 | 1006.9 |
| 20260506114005 | 62 | 175 | 0.0 | 2.0 | 0.01 | 0.01 | 0.01 | 89 | 1006.9 |
| 20260506113901 | 62 | 175 | 0.0 | 2.0 | 0.01 | 0.01 | 0.01 | 89 | 1006.9 |
| 20260506113801 | 62 | 175 | 0.0 | 2.0 | 0.01 | 0.01 | 0.01 | 89 | 1006.8 |
| 20260506113601 | 62 | 174 | 1.0 | 2.0 | 0.01 | 0.01 | 0.01 | 89 | 1006.8 |
| 20260506113402 | 62 | 174 | 0.0 | 2.0 | 0.01 | 0.01 | 0.01 | 88 | 1006.8 |
| 20260506113301 | 62 | 174 | 0.0 | 5.0 | 0.01 | 0.01 | 0.01 | 87 | 1006.8 |
| 20260506113201 | 62 | 174 | 0.0 | 5.0 | 0.01 | 0.01 | 0.01 | 87 | 1006.7 |
| 20260506113105 | 62 | 174 | 0.0 | 5.0 | 0.01 | 0.01 | 0.01 | 87 | 1006.6 |
| 20260506113006 | 62 | 174 | 1.0 | 5.0 | 0.01 | 0.01 | 0.01 | 87 | 1006.6 |
| 20260506112602 | 62 | 174 | 1.0 | 5.0 | 0.01 | 0.01 | 0.01 | 87 | 1006.5 |
| 20260506112504 | 62 | 174 | 1.0 | 5.0 | 0.01 | 0.01 | 0.01 | 86 | 1006.5 |
| 20260506112402 | 63 | 175 | 2.0 | 5.0 | 0.01 | 0.01 | 0.01 | 87 | 1006.5 |
| 20260506112301 | 63 | 174 | 1.0 | 4.0 | 0.01 | 0.01 | 0.01 | 86 | 1006.4 |
| 20260506111900 | 63 | 202 | 0.0 | 3.0 | 0.01 | 0.01 | 0.01 | 85 | 1006.5 |
| 20260506111801 | 63 | 202 | 1.0 | 3.0 | 0.01 | 0.01 | 0.01 | 85 | 1006.5 |
| 20260506111702 | 63 | 202 | 0.0 | 3.0 | 0.01 | 0.01 | 0.01 | 85 | 1006.5 |
| 20260506111600 | 63 | 167 | 3.0 | 3.0 | 0.01 | 0.01 | 0.01 | 85 | 1006.5 |
| 20260506111505 | 63 | 219 | 0.0 | 2.0 | 0.01 | 0.01 | 0.01 | 85 | 1006.5 |
| 20260506111400 | 63 | 219 | 1.0 | 2.0 | 0.01 | 0.01 | 0.01 | 84 | 1006.5 |
| 20260506111301 | 63 | 219 | 0.0 | 2.0 | 0.00 | 0.00 | 0.00 | 84 | 1006.5 |
| 20260506111201 | 63 | 219 | 0.0 | 2.0 | 0.00 | 0.00 | 0.00 | 84 | 1006.5 |
| 20260506111100 | 64 | 219 | 1.0 | 2.0 | 0.00 | 0.00 | 0.00 | 84 | 1006.4 |
| 20260506110802 | 64 | 219 | 1.0 | 2.0 | 0.00 | 0.00 | 0.00 | 83 | 1006.4 |
| 20260506110701 | 64 | 219 | 0.0 | 2.0 | 0.00 | 0.00 | 0.00 | 83 | 1006.4 |
| 20260506110601 | 64 | 219 | 0.0 | 4.0 | 0.00 | 0.00 | 0.00 | 82 | 1006.4 |
| 20260506110506 | 64 | 219 | 0.0 | 5.0 | 0.00 | 0.00 | 0.00 | 82 | 1006.3 |
| 20260506110401 | 64 | 219 | 0.0 | 5.0 | 0.00 | 0.00 | 0.00 | 81 | 1006.3 |
| 20260506110301 | 64 | 219 | 0.0 | 5.0 | 0.00 | 0.00 | 0.00 | 81 | 1006.3 |
| 20260506110201 | 64 | 219 | 0.0 | 5.0 | 0.00 | 0.00 | 0.00 | 81 | 1006.3 |
| 20260506105902 | 65 | 219 | 1.0 | 5.0 | 0.00 | 0.00 | 0.00 | 79 | 1006.3 |
| 20260506105801 | 65 | 219 | 0.0 | 5.0 | 0.00 | 0.00 | 0.00 | 79 | 1006.3 |
| 20260506105601 | 65 | 279 | 2.0 | 4.0 | 0.00 | 0.00 | 0.00 | 79 | 1006.2 |
| 20260506105505 | 65 | 94 | 2.0 | 4.0 | 0.00 | 0.00 | 0.00 | 78 | 1006.2 |
| 20260506105304 | 65 | 213 | 0.0 | 3.0 | 0.00 | 0.00 | 0.00 | 78 | 1006.2 |
| 20260506105201 | 65 | 213 | 0.0 | 3.0 | 0.00 | 0.00 | 0.00 | 77 | 1006.2 |
| 20260506105100 | 65 | 213 | 1.0 | 6.0 | 0.00 | 0.00 | 0.00 | 77 | 1006.2 |
| 20260506104901 | 65 | 213 | 1.0 | 6.0 | 0.00 | 0.00 | 0.00 | 76 | 1006.1 |
| 20260506104801 | 65 | 213 | 2.0 | 6.0 | 0.00 | 0.00 | 0.00 | 76 | 1006.1 |
| 20260506104702 | 65 | 271 | 1.0 | 6.0 | 0.00 | 0.00 | 0.00 | 76 | 1006.2 |
| 20260506104601 | 65 | 271 | 0.0 | 6.0 | 0.00 | 0.00 | 0.00 | 76 | 1006.1 |
| 20260506104401 | 65 | 293 | 1.0 | 6.0 | 0.00 | 0.00 | 0.00 | 75 | 1006.0 |
| 20260506104302 | 65 | 212 | 0.0 | 6.0 | 0.00 | 0.00 | 0.00 | 76 | 1006.0 |
| 20260506104101 | 65 | 219 | 1.0 | 4.0 | 0.00 | 0.00 | 0.00 | 76 | 1006.0 |
| 20260506104005 | 65 | 219 | 4.0 | 4.0 | 0.00 | 0.00 | 0.00 | 76 | 1006.0 |
| 20260506103801 | 65 | 219 | 1.0 | 3.0 | 0.00 | 0.00 | 0.00 | 76 | 1006.0 |
| 20260506103701 | 65 | 150 | 1.0 | 3.0 | 0.00 | 0.00 | 0.00 | 76 | 1006.0 |
| 20260506103601 | 65 | 150 | 0.0 | 3.0 | 0.00 | 0.00 | 0.00 | 76 | 1006.0 |
| 20260506103505 | 65 | 150 | 1.0 | 3.0 | 0.00 | 0.00 | 0.00 | 75 | 1005.9 |
| 20260506103400 | 65 | 150 | 0.0 | 3.0 | 0.00 | 0.00 | 0.00 | 75 | 1005.9 |
| 20260506103302 | 65 | 149 | 0.0 | 3.0 | 0.00 | 0.00 | 0.00 | 76 | 1005.9 |
| 20260506102900 | 65 | 129 | 0.0 | 5.0 | 0.00 | 0.00 | 0.00 | 76 | 1005.9 |
| 20260506102801 | 65 | 129 | 0.0 | 5.0 | 0.00 | 0.00 | 0.00 | 76 | 1005.9 |
| 20260506102700 | 65 | 129 | 0.0 | 5.0 | 0.00 | 0.00 | 0.00 | 76 | 1005.9 |
| 20260506102601 | 65 | 129 | 0.0 | 5.0 | 0.00 | 0.00 | 0.00 | 75 | 1005.9 |
| 20260506102401 | 65 | 129 | 0.0 | 5.0 | 0.00 | 0.00 | 0.00 | 75 | 1005.9 |
| 20260506102305 | 65 | 129 | 0.0 | 5.0 | 0.00 | 0.00 | 0.00 | 75 | 1005.8 |
| 20260506102202 | 65 | 129 | 1.0 | 5.0 | 0.00 | 0.00 | 0.00 | 75 | 1005.7 |
| 20260506102100 | 65 | 129 | 2.0 | 5.0 | 0.00 | 0.00 | 0.00 | 75 | 1005.7 |
| 20260506102004 | 65 | 128 | 5.0 | 6.0 | 0.00 | 0.00 | 0.00 | 75 | 1005.7 |
| 20260506101900 | 65 | 207 | 0.0 | 3.0 | 0.00 | 0.00 | 0.00 | 75 | 1005.7 |
| 20260506101801 | 65 | 207 | 0.0 | 3.0 | 0.00 | 0.00 | 0.00 | 75 | 1005.7 |